GFSSW_sfc_thetae_003.txt.gz
Theta_e
317 317 317 317 317 317 316 316 316 316 316 317 317 317 317 317 317 308 300 309 313 330 336 332 324 321 316 313 314 312 301 298 300 301 303 308 303 309 311 307 309 310 312 315 317
314 314 315 315 316 317 317 316 316 316 316 316 316 316 316 317 310 305 315 326 329 333 321 322 317 317 310 310 311 307 300 301 307 307 305 307 307 310 306 307 306 309 314 318 316
313 313 314 313 314 314 315 316 316 317 317 316 316 316 316 316 302 300 327 328 328 333 315 321 319 315 308 309 309 306 303 308 308 311 310 308 309 312 306 306 308 307 309 313 312
311 310 311 312 313 313 313 314 315 317 317 316 316 316 316 310 289 302 336 340 337 325 311 310 314 309 306 305 311 303 309 311 310 312 310 308 312 309 309 309 314 313 313 313 311
312 312 311 310 311 312 313 313 313 315 316 316 316 316 309 302 296 305 330 332 328 318 309 305 304 307 304 307 308 305 308 310 312 311 311 312 309 309 310 314 314 310 313 313 313
313 313 312 312 311 310 311 313 313 313 314 315 316 316 304 290 303 308 308 307 309 314 311 306 304 305 300 303 303 308 309 310 312 312 312 309 310 311 312 315 312 309 310 312 313
313 313 313 313 312 312 311 311 312 313 313 314 315 311 303 298 304 306 303 304 306 314 309 311 309 306 302 299 302 303 300 303 306 309 308 310 305 306 311 311 309 309 308 311 312
312 312 312 312 313 312 312 311 311 311 312 314 315 310 298 309 310 307 305 301 303 305 310 311 312 306 300 301 301 297 297 293 302 306 309 304 299 307 310 308 307 308 307 308 310
312 312 311 311 312 312 313 312 310 310 311 313 307 304 295 309 304 306 304 300 301 302 305 311 307 301 298 297 293 293 291 292 297 303 303 301 299 307 310 307 306 307 306 306 308
311 311 311 311 311 312 312 311 309 309 308 309 307 298 300 296 300 304 303 303 302 301 301 302 300 295 292 292 286 289 289 294 295 299 301 300 300 306 309 307 306 307 308 307 306
311 311 311 311 311 312 308 299 295 299 302 297 296 295 298 304 307 305 304 300 303 300 293 299 295 292 296 296 296 295 293 293 297 301 300 299 300 304 307 305 305 306 306 306 307
311 310 310 311 311 311 303 294 298 301 292 300 301 302 305 306 298 302 305 296 297 291 297 295 292 299 300 299 296 295 293 293 298 301 299 299 299 303 305 305 306 307 305 305 305
311 310 310 311 311 301 296 298 305 303 292 295 299 298 299 302 298 299 303 300 293 292 293 291 295 302 301 297 295 294 293 294 295 299 300 298 297 300 304 305 306 306 305 305 307
311 311 311 311 300 296 296 303 302 301 283 286 293 297 300 300 295 304 306 301 296 290 294 293 298 297 297 295 296 292 299 298 297 294 291 298 287 295 299 301 302 304 304 305 306
310 310 310 310 301 297 298 301 304 299 270 288 292 303 302 295 297 297 305 302 295 292 293 291 294 294 294 295 298 295 301 299 298 294 292 295 289 293 297 298 300 302 302 303 305
310 310 310 302 300 301 303 301 299 284 273 286 293 291 292 297 297 300 299 302 302 295 294 293 300 297 296 300 300 300 297 296 295 292 286 293 290 292 295 298 300 302 304 305 305
310 309 307 305 294 299 302 295 281 277 288 285 287 290 288 289 293 295 295 292 291 288 288 292 294 297 299 295 298 296 291 284 280 284 285 294 290 294 299 302 303 303 302 304 306
309 308 305 304 301 301 295 287 276 283 284 290 289 289 288 290 290 294 293 290 295 293 290 287 285 294 298 296 293 294 294 286 280 281 285 294 289 295 302 304 304 304 303 305 306
306 299 298 298 302 301 293 280 278 284 288 287 288 286 286 288 289 290 292 291 293 295 288 287 288 297 298 298 297 293 290 296 288 289 286 289 294 299 301 301 303 303 305 304 306
299 297 293 299 302 299 288 279 284 290 289 289 282 287 282 285 286 287 289 293 295 296 293 291 285 295 297 299 298 293 296 287 286 280 280 287 289 292 296 299 303 303 303 304 307
293 290 294 305 301 293 280 282 286 291 290 287 285 283 285 285 287 286 289 293 295 294 296 290 289 290 295 293 291 289 291 289 291 289 283 281 288 296 298 299 303 303 304 305 308
289 283 297 302 288 287 281 286 291 289 291 289 289 287 286 287 286 285 287 292 296 296 291 293 288 287 290 295 298 296 292 292 287 286 287 288 291 299 298 299 304 304 306 306 308
289 287 296 299 281 282 285 286 289 287 288 287 287 288 289 286 283 287 288 295 296 293 291 293 287 283 285 290 293 291 293 293 291 290 288 286 291 302 300 299 305 304 305 307 308
291 282 286 291 290 286 284 284 284 290 288 288 287 288 287 287 289 286 287 291 294 294 300 293 288 288 285 288 292 290 293 293 293 289 289 290 291 297 300 302 303 304 306 307 309
287 283 288 282 282 284 282 284 283 283 288 289 285 287 286 283 286 286 289 291 292 296 293 288 282 291 292 293 295 294 294 294 292 294 291 294 293 297 302 303 306 306 306 307 309
286 288 292 286 288 283 283 282 284 286 286 285 285 287 287 284 286 284 288 289 288 291 289 288 282 289 291 293 293 292 295 295 296 295 295 295 294 299 304 307 307 307 307 308 309
295 296 290 287 285 278 279 285 285 288 289 290 289 286 285 288 292 292 293 294 293 289 287 285 285 284 285 293 291 288 293 294 296 297 297 292 296 300 302 307 308 307 308 309 310

GFSSW_sfc_thetae_009.txt.gz
Theta_e
313 312 312 312 312 312 312 312 313 314 315 317 318 317 317 317 317 309 300 308 313 327 334 327 324 320 314 313 320 317 308 303 304 304 307 312 311 314 317 316 316 316 318 321 323
313 313 312 313 313 312 311 311 312 313 313 315 317 317 317 317 310 305 313 323 327 331 322 317 312 317 314 315 315 313 307 306 311 311 310 311 312 313 313 314 314 317 320 320 321
313 313 314 314 314 313 313 313 312 311 312 312 314 315 317 316 299 299 332 326 324 335 318 316 314 314 310 314 313 312 307 312 312 313 313 312 312 315 312 311 314 315 318 321 323
312 312 312 312 312 313 314 314 313 313 312 312 313 314 317 310 293 311 322 333 338 320 312 310 312 310 307 307 313 307 312 312 313 314 313 311 314 311 314 315 319 320 321 321 321
312 312 312 312 311 311 312 313 313 313 312 311 312 313 310 301 298 305 317 315 317 319 308 308 309 308 304 307 309 309 310 313 314 314 314 314 311 312 313 316 319 320 320 320 322
311 311 311 312 310 311 311 312 312 312 313 312 310 312 304 292 309 310 310 309 306 314 309 308 309 311 307 307 307 309 310 311 313 313 313 311 311 313 314 318 317 319 319 320 321
310 311 311 311 311 311 311 312 312 312 312 312 312 308 300 297 310 312 310 308 307 307 305 309 309 309 309 305 310 310 306 309 310 311 310 310 304 305 313 314 314 315 317 319 320
311 311 311 311 311 311 311 312 312 312 312 312 312 305 295 308 311 309 311 309 310 309 306 309 310 306 305 306 303 301 302 297 304 305 306 305 299 308 312 312 312 314 316 316 318
311 312 311 311 311 311 311 312 311 311 311 310 304 301 293 309 303 309 310 305 306 307 305 306 310 305 303 299 298 299 295 296 299 304 303 305 301 307 311 311 310 312 314 315 317
310 311 312 311 311 311 311 310 309 309 307 307 304 295 297 296 304 306 309 308 303 301 300 299 303 299 299 297 291 295 294 296 296 302 302 301 301 306 308 309 310 312 314 315 315
310 311 311 311 310 311 308 303 300 299 300 295 295 294 297 302 305 301 307 304 303 299 294 297 294 293 296 298 299 299 298 298 301 303 300 300 300 304 308 309 309 310 312 314 317
310 310 311 310 310 309 303 298 298 298 291 298 298 298 301 302 296 299 304 297 296 292 296 294 291 297 300 298 297 297 296 296 299 300 300 300 300 305 307 307 309 311 312 314 317
310 310 310 310 310 302 300 299 305 304 291 294 298 297 298 300 295 296 301 298 294 292 293 293 295 297 297 296 295 295 294 295 296 299 301 300 298 301 306 309 310 311 313 315 316
310 310 310 310 301 301 298 303 305 304 286 288 292 296 299 299 293 302 301 298 295 291 293 294 298 296 295 294 297 292 298 297 296 295 291 300 290 299 302 304 307 309 313 314 316
310 309 309 309 301 297 300 305 305 300 273 288 293 303 299 295 296 297 303 298 294 293 294 291 293 294 293 295 298 295 300 298 298 296 296 296 293 297 302 301 304 308 311 315 314
309 309 308 304 302 303 305 304 302 284 273 285 292 291 290 293 295 298 298 300 300 295 295 295 299 297 296 298 300 301 299 299 299 296 289 294 293 294 298 301 304 309 312 312 313
309 307 304 304 298 303 304 299 283 276 287 284 286 289 288 289 291 293 292 291 289 288 289 292 293 297 298 296 300 300 296 288 287 287 286 296 293 295 302 304 306 309 313 313 315
307 306 302 303 305 305 300 290 275 281 283 289 288 288 284 289 289 290 290 290 293 293 292 287 285 293 298 296 295 297 296 290 284 286 289 296 290 294 306 308 308 311 313 313 315
305 302 301 303 303 303 293 280 279 283 287 285 286 283 284 287 287 287 287 289 292 294 288 290 289 296 298 299 299 296 293 299 291 294 291 294 298 303 307 308 310 310 310 313 315
299 297 299 304 304 300 288 281 283 289 288 288 281 284 281 283 284 285 284 291 289 293 295 292 289 296 296 299 299 297 300 291 292 284 283 290 293 297 303 306 309 309 310 312 315
298 293 301 303 302 292 283 283 286 291 291 286 284 283 284 283 286 284 284 288 291 291 294 294 292 293 295 294 293 294 294 295 296 293 287 285 291 306 307 310 310 311 312 313 315
296 288 300 304 290 288 285 287 290 289 292 289 289 287 285 286 284 284 284 287 293 292 288 294 292 289 292 298 300 298 296 296 290 288 292 292 292 307 309 310 310 310 311 314 316
290 290 300 301 283 284 286 286 288 288 288 288 286 288 289 286 282 286 287 292 293 290 288 293 290 287 290 294 297 295 297 298 298 297 291 287 293 306 310 309 310 310 311 313 315
292 286 292 295 292 285 283 284 284 290 289 290 288 289 288 286 288 285 287 291 293 292 296 294 289 289 287 291 295 292 294 297 297 292 292 292 295 301 305 308 310 311 313 314 315
292 287 290 284 286 286 285 285 283 284 289 290 287 287 285 283 285 285 287 289 292 293 293 292 286 288 290 292 293 294 294 294 293 295 291 295 296 300 306 307 310 313 313 314 315
290 289 292 288 289 286 286 284 284 286 286 285 286 288 287 283 285 283 287 287 287 292 290 293 286 289 289 292 293 292 295 295 295 295 295 296 297 305 307 309 310 312 313 313 315
298 298 292 288 286 284 285 285 285 288 289 290 289 287 286 288 290 291 292 291 291 290 290 289 289 287 286 291 292 289 294 296 296 297 297 293 299 304 304 308 312 313 314 315 316

GFSSW_sfc_thetae_012.txt.gz
Theta_e
315 315 315 314 314 314 313 313 312 313 313 314 315 317 317 318 318 315 306 312 316 330 333 326 324 323 319 316 320 322 311 308 310 310 312 317 315 319 321 319 320 322 321 325 327
313 313 313 314 314 314 314 314 314 313 312 313 313 315 316 317 314 310 320 322 329 331 314 319 316 319 316 317 318 317 311 311 316 316 314 317 316 317 316 317 318 320 324 326 327
313 313 313 312 312 312 312 313 314 314 313 312 312 314 315 317 308 306 328 332 327 327 312 317 316 314 312 316 317 316 311 316 316 318 318 317 316 319 316 314 317 318 321 324 325
312 311 312 312 312 312 312 312 313 313 313 313 312 313 315 313 296 317 320 325 335 323 312 312 314 309 308 308 315 312 316 316 317 317 317 316 318 316 317 317 320 322 323 323 323
310 311 312 312 312 311 311 312 312 312 313 313 312 311 312 304 303 315 321 321 315 319 312 312 311 311 308 310 310 311 314 316 317 317 317 317 315 315 316 320 322 322 323 323 323
310 311 312 312 312 312 313 313 313 312 312 312 312 311 307 296 310 313 313 313 311 314 314 313 311 314 313 312 310 312 312 313 315 315 316 314 314 316 316 319 320 321 319 320 321
310 311 312 312 312 312 313 312 312 312 312 313 313 311 304 301 310 313 312 311 312 310 309 313 314 312 314 310 314 312 308 311 312 314 313 315 311 311 317 318 317 317 318 320 321
311 311 311 312 312 312 312 312 312 312 312 313 313 310 299 308 312 310 313 311 313 313 310 312 312 310 312 313 310 307 308 303 311 312 313 312 305 312 316 316 315 316 317 318 320
311 312 311 312 311 312 312 312 311 311 312 312 308 306 297 310 304 308 311 307 310 311 312 310 308 307 307 302 302 305 300 304 306 313 309 308 305 312 316 315 314 315 316 317 319
311 311 312 311 311 311 311 311 311 310 310 311 308 299 302 297 304 308 310 310 307 307 306 304 304 302 302 301 296 299 301 302 304 309 308 306 306 311 315 314 313 314 315 316 318
311 311 311 311 311 311 309 308 303 303 303 298 297 299 299 303 306 303 306 306 306 304 298 301 297 297 301 303 304 303 303 303 306 310 307 306 307 310 313 313 312 314 315 316 318
310 310 310 311 311 311 308 301 301 302 295 301 300 300 302 304 297 301 306 299 301 296 300 299 295 302 304 304 302 302 301 302 306 309 308 306 304 309 311 312 313 314 314 316 319
311 310 310 310 310 308 304 303 308 307 294 297 300 299 300 303 298 299 302 300 298 296 297 296 298 303 302 301 300 300 300 301 300 304 307 304 301 304 309 311 312 314 316 318 318
310 310 310 309 305 306 302 307 309 308 289 290 294 299 301 302 297 305 305 300 298 295 297 297 302 301 300 299 301 297 303 301 300 299 295 304 294 303 307 308 310 312 315 317 318
310 309 308 308 304 301 304 308 308 305 277 290 296 306 301 297 298 299 306 301 293 296 298 295 297 298 298 300 302 300 302 301 301 299 299 299 296 300 306 305 308 312 315 318 319
310 309 307 307 305 305 308 308 304 287 277 287 294 293 293 295 295 299 300 304 301 294 298 298 303 301 301 302 303 304 301 301 301 299 292 298 297 298 302 306 309 313 314 316 320
309 307 305 307 301 308 308 302 286 279 289 286 288 292 291 290 291 293 293 294 292 288 288 296 296 301 302 300 302 301 299 293 291 291 291 300 297 300 307 310 311 311 315 319 322
308 306 304 309 309 307 304 293 278 283 284 290 289 290 286 289 290 291 291 291 297 294 291 289 289 297 301 300 298 299 299 293 287 289 293 300 295 300 308 311 314 313 315 318 322
306 310 308 308 310 308 296 283 283 286 288 287 288 286 286 288 288 289 289 289 295 297 289 290 292 300 300 302 302 299 296 303 296 298 295 298 302 307 310 310 312 314 315 318 322
304 304 303 309 310 302 292 284 287 291 291 290 284 286 283 286 286 288 287 289 289 295 299 295 291 299 299 302 303 302 304 295 297 290 288 294 297 301 306 308 311 312 316 319 322
304 298 305 310 309 299 286 287 289 293 293 289 287 286 286 285 287 287 286 289 291 292 297 296 296 296 299 296 297 299 299 300 300 297 291 291 295 305 308 311 312 315 319 320 321
301 294 305 309 293 295 288 289 292 291 294 291 291 289 287 288 287 287 286 289 293 294 290 296 296 291 295 300 303 302 300 301 294 293 296 295 294 310 312 313 314 315 319 321 322
296 297 306 305 287 287 290 289 291 290 290 290 289 291 292 288 285 288 289 294 294 292 291 293 294 291 293 297 301 299 299 301 302 302 296 291 295 309 312 314 315 316 318 320 322
297 291 297 300 294 288 287 287 288 292 291 292 291 292 290 288 290 287 289 290 294 294 296 296 295 293 291 294 298 296 298 300 301 296 296 296 297 304 310 311 314 317 319 320 321
297 293 294 289 290 289 290 288 286 286 291 293 289 290 288 285 287 286 289 290 291 294 295 295 291 295 296 296 297 298 298 299 298 300 296 298 299 303 309 310 314 316 318 319 320
294 290 295 291 292 290 289 287 287 289 288 289 288 290 291 287 287 286 288 289 289 294 294 296 291 295 293 296 296 295 298 299 299 300 300 300 300 308 310 311 311 314 317 319 320
299 300 293 290 289 287 288 288 288 290 291 292 291 289 289 291 294 295 295 295 293 290 290 292 291 292 289 295 294 292 297 299 299 301 301 298 303 308 307 308 311 315 317 319 321

GFSSW_sfc_thetae_015.txt.gz
Theta_e
313 314 314 314 313 313 314 315 315 315 315 314 314 314 315 316 317 316 312 316 320 330 334 327 327 327 323 319 317 320 310 308 310 311 312 318 317 321 323 320 321 323 323 326 328
313 313 313 313 313 313 313 313 314 315 315 315 314 313 315 316 313 310 321 331 332 333 315 318 319 319 319 318 316 313 310 311 316 317 316 318 318 319 319 319 319 320 325 327 328
311 312 312 313 313 313 312 312 313 313 314 314 314 314 313 315 309 308 325 329 331 330 313 315 321 318 314 318 317 315 310 316 318 319 319 318 318 321 318 316 319 318 322 325 326
311 311 312 313 313 313 313 313 313 313 313 313 314 314 314 313 299 317 320 324 326 324 313 310 313 315 311 310 316 312 316 317 318 319 318 317 318 318 319 319 323 322 324 325 324
311 312 312 313 313 313 313 313 313 313 313 313 313 314 311 305 305 317 323 323 317 322 316 310 309 313 311 311 313 312 314 317 319 319 319 319 317 317 318 322 323 323 324 324 324
311 312 312 312 313 313 314 314 313 313 313 313 313 313 308 297 313 314 315 314 315 315 317 314 312 315 314 314 312 314 314 314 315 316 317 316 316 317 319 322 321 321 322 323 323
311 311 312 312 313 312 313 313 313 313 313 313 313 312 305 302 312 313 313 312 313 313 310 317 316 313 315 312 317 315 311 313 314 315 314 316 312 313 318 320 319 320 321 322 322
311 312 312 312 312 312 312 313 313 313 313 314 314 311 301 310 312 309 311 309 313 314 313 315 317 314 313 315 313 310 311 305 312 314 314 314 306 314 319 318 318 319 319 320 322
312 312 311 312 312 312 312 312 312 313 313 313 311 307 299 312 306 309 310 306 309 312 313 313 312 309 310 306 305 308 303 305 308 314 313 312 308 315 318 317 317 318 319 319 320
312 312 312 311 311 312 312 311 313 311 312 313 311 302 305 300 305 307 311 309 306 308 308 307 306 303 304 303 297 301 302 304 304 310 312 310 310 314 316 315 316 317 318 319 319
311 311 311 311 311 311 310 310 306 305 309 302 300 301 301 305 307 304 307 305 308 305 300 305 299 297 300 304 306 305 304 304 307 312 309 308 309 312 315 315 315 316 318 319 319
311 310 311 311 311 311 310 303 303 304 297 303 302 302 304 305 298 302 306 300 301 298 301 301 297 302 304 305 304 303 302 303 307 311 309 309 308 312 314 315 315 315 316 318 319
311 310 310 310 310 309 306 304 310 309 296 298 301 300 301 304 299 300 303 300 297 297 298 297 300 304 302 302 301 303 301 302 303 308 309 308 306 308 312 314 315 315 317 318 319
310 310 310 308 305 308 304 308 310 309 290 292 296 299 302 303 298 306 306 301 297 293 299 298 303 302 301 300 302 298 306 305 304 303 298 307 297 305 309 310 312 314 316 317 319
310 310 310 307 306 304 306 310 309 306 278 293 295 307 302 298 299 300 307 303 294 295 296 296 298 299 299 300 304 301 306 305 305 302 301 301 298 302 308 306 310 313 315 317 319
310 309 308 309 309 308 311 309 305 288 278 289 295 294 295 296 297 299 300 305 303 296 297 297 304 302 301 304 305 306 304 305 305 302 295 300 299 300 304 307 310 314 316 318 319
309 309 308 310 304 311 310 303 286 281 291 287 289 292 292 291 293 294 293 294 293 289 289 294 297 302 304 300 304 304 301 294 292 293 293 302 299 301 308 310 312 313 315 317 322
308 306 307 310 310 310 305 294 281 287 287 292 291 291 288 291 291 291 292 290 294 294 292 288 287 297 303 301 299 301 301 295 289 292 294 302 296 302 311 313 314 315 316 322 325
306 311 308 311 311 309 297 286 284 288 291 289 291 287 288 290 290 290 290 290 294 295 289 290 289 299 301 303 302 300 298 304 299 301 297 300 304 308 312 312 313 315 316 321 324
307 306 307 311 312 306 295 286 288 292 292 292 285 289 285 287 288 289 288 293 292 294 297 296 289 297 301 303 303 302 305 297 300 292 291 297 300 300 307 309 312 314 315 319 324
307 301 307 311 311 301 289 289 291 294 294 290 288 287 288 287 288 288 288 293 294 294 296 296 293 295 299 298 297 299 299 301 302 300 294 293 296 308 309 312 312 314 317 322 324
305 296 307 312 296 297 290 292 293 293 294 293 292 291 289 289 288 288 288 291 295 296 293 298 294 291 295 302 303 302 301 302 297 297 299 299 299 312 312 313 316 317 321 324 325
300 301 308 306 290 290 294 292 293 292 292 291 290 293 294 290 286 290 291 295 295 294 293 296 293 287 293 298 301 300 302 304 304 305 298 296 299 312 314 315 316 317 321 323 324
301 295 300 304 296 291 290 291 290 295 293 293 292 293 291 289 291 289 290 293 295 294 297 296 294 292 289 294 299 297 300 303 303 299 299 299 302 308 311 313 316 319 322 322 323
302 296 297 292 293 290 291 291 289 288 293 294 292 292 290 287 289 289 291 292 293 295 294 294 290 293 293 297 299 299 299 301 301 302 299 302 302 306 311 313 315 319 321 321 322
296 294 298 294 294 290 292 290 289 290 291 290 290 292 292 289 289 288 290 291 290 294 294 296 290 292 289 295 298 298 300 301 302 303 303 303 303 308 311 314 314 317 319 320 321
304 302 297 293 292 290 291 290 290 292 294 294 292 291 292 293 296 297 297 296 295 292 292 292 291 291 285 294 296 294 299 300 302 304 304 300 304 310 310 311 315 316 318 320 322

GFSSW_sfc_thetae_021.txt.gz
Theta_e
312 312 313 313 314 313 314 314 314 314 315 315 315 315 316 316 316 308 304 311 317 327 329 322 321 319 319 320 321 315 296 294 299 303 307 314 312 317 319 316 318 319 318 320 322
312 312 312 313 313 314 314 314 314 314 314 315 315 315 315 316 308 304 314 327 328 334 316 309 307 317 317 317 317 314 297 298 305 307 308 311 312 314 315 314 316 318 322 324 324
312 313 312 313 313 314 314 314 314 314 314 314 314 314 315 314 303 302 331 329 326 332 314 311 310 310 311 312 314 314 306 307 307 309 311 311 312 316 314 311 314 315 318 321 321
312 312 313 313 313 313 314 314 314 314 314 314 314 314 314 308 290 308 332 333 335 322 311 307 304 300 299 307 311 306 310 312 311 311 310 309 314 312 314 312 316 317 318 318 317
312 313 313 312 313 313 313 314 314 314 313 313 313 313 308 298 297 307 330 329 314 311 307 304 300 298 296 301 309 306 307 310 313 312 311 313 311 311 312 317 318 318 318 317 317
313 312 312 312 312 313 314 314 314 313 313 313 313 313 303 291 305 307 308 310 313 309 306 304 301 303 300 300 300 308 309 308 310 310 312 311 311 311 313 315 315 315 315 315 317
313 313 312 312 313 313 313 313 313 313 313 313 314 310 300 297 306 307 305 304 305 307 306 310 311 307 302 299 304 304 301 306 309 309 308 311 306 308 313 314 314 314 315 315 316
313 313 312 312 312 312 313 313 312 313 313 314 315 307 295 307 307 305 305 304 306 305 305 306 307 302 301 304 303 300 300 295 302 307 310 308 301 309 313 313 312 314 315 316 315
312 312 312 312 312 312 313 312 313 313 314 314 308 303 294 310 303 306 306 302 304 305 305 307 303 299 300 296 295 298 292 294 298 306 306 305 302 310 313 313 312 313 314 315 316
312 312 312 312 311 312 311 311 312 313 311 311 309 300 302 300 306 308 308 307 304 302 300 299 297 294 294 293 288 292 294 296 296 302 305 303 303 308 311 311 311 313 313 314 314
311 311 311 311 311 311 308 302 299 298 303 298 299 301 303 308 310 304 307 303 301 299 291 295 290 289 292 295 297 297 297 296 299 304 303 302 303 306 310 309 308 309 311 312 313
310 311 311 311 311 311 305 300 300 298 291 299 299 299 302 303 297 300 304 296 294 289 294 292 288 294 298 297 296 296 293 294 300 304 302 302 301 306 309 308 309 310 310 311 311
310 310 311 311 311 306 302 302 306 303 291 294 298 298 298 300 296 296 300 297 292 289 290 288 292 297 297 296 294 294 293 293 294 300 301 299 297 300 305 308 310 310 310 311 312
309 310 310 310 304 304 301 306 306 303 283 289 296 299 300 299 293 301 302 297 293 289 290 289 295 296 294 294 296 290 298 297 297 295 290 299 289 297 301 304 307 310 310 312 311
309 310 310 308 302 301 304 306 305 299 274 293 294 304 300 295 297 299 304 298 292 292 290 287 290 290 291 293 297 294 299 297 297 294 293 294 291 295 301 300 302 306 308 309 310
308 309 309 307 303 305 306 304 301 286 276 288 294 292 292 294 295 298 299 302 300 293 293 291 296 293 291 295 298 299 297 296 295 292 285 292 292 293 296 300 304 306 308 310 310
309 308 306 307 300 305 305 300 285 277 290 286 286 291 291 290 292 293 292 292 288 285 286 291 292 294 295 290 293 294 290 284 283 284 284 293 292 295 300 304 306 306 307 310 315
308 306 307 309 308 306 301 290 279 285 285 291 289 290 287 290 289 291 290 286 291 290 285 284 283 293 297 291 288 288 290 284 278 282 285 294 289 294 304 307 308 309 307 318 320
306 306 304 307 307 305 294 280 281 286 289 288 288 285 285 288 289 289 288 287 291 292 286 285 285 296 295 296 293 289 286 294 288 290 286 290 295 300 303 304 307 307 308 316 319
301 301 304 307 308 301 289 285 288 291 291 290 283 286 282 284 286 286 287 291 291 295 294 290 282 291 293 295 296 292 294 286 288 281 281 288 291 292 300 302 306 306 313 316 319
301 298 304 306 306 296 282 287 290 294 294 289 285 285 285 285 286 285 287 291 294 293 293 290 286 286 291 288 288 290 288 289 290 288 284 283 289 301 302 305 304 307 315 317 318
300 293 304 306 291 292 285 290 293 292 295 292 291 289 288 288 286 286 286 289 295 295 288 291 287 283 286 293 295 294 291 290 286 286 290 288 290 306 307 307 305 310 317 317 320
295 298 306 303 285 286 291 291 292 292 292 291 290 291 291 288 284 288 289 294 296 294 290 291 284 280 283 288 293 291 295 293 291 291 288 287 290 303 305 309 312 315 317 318 319
297 291 295 297 295 290 287 288 289 295 293 292 291 292 290 287 289 287 288 293 296 295 297 294 286 283 280 286 290 288 290 293 292 287 289 292 294 298 304 308 313 316 317 318 319
298 292 294 286 289 291 292 291 289 288 293 294 290 290 288 284 286 286 289 291 294 296 294 291 285 287 289 291 291 289 289 290 288 292 290 293 295 301 306 309 314 316 317 317 318
296 293 295 292 293 291 292 290 289 290 291 289 288 291 290 286 288 285 288 288 287 293 292 293 286 288 286 291 291 287 290 290 290 292 295 296 297 307 309 313 315 316 316 316 318
300 301 296 293 290 289 289 290 291 293 293 294 292 291 289 292 294 294 293 292 292 289 288 287 287 285 283 290 289 284 288 290 292 294 296 293 299 310 310 311 312 313 316 317 319

GFSSW_sfc_thetae_024.txt.gz
Theta_e
312 312 312 312 313 313 314 314 314 315 315 315 315 315 315 315 316 308 301 308 312 325 331 316 324 318 313 313 318 311 295 292 297 300 303 310 311 317 318 315 316 319 316 320 323
312 312 312 313 313 313 313 314 314 314 314 315 315 315 315 315 307 302 311 322 326 331 313 310 307 312 311 313 315 310 299 297 303 305 303 306 308 310 311 312 313 317 320 321 322
312 312 313 313 313 313 313 314 314 314 314 314 314 314 314 313 300 300 326 325 326 328 315 311 309 306 304 312 312 310 305 307 306 309 308 306 308 311 309 308 312 314 316 318 319
313 313 313 313 313 313 313 314 314 314 313 313 313 313 314 307 283 306 329 329 334 322 315 308 303 299 296 299 310 306 312 314 314 315 311 307 310 308 309 310 315 316 317 317 317
313 313 313 313 313 313 313 313 313 313 313 313 313 313 307 297 298 302 319 313 309 323 309 304 300 298 293 296 299 300 308 310 312 312 312 312 309 309 309 313 317 316 316 314 314
312 312 313 313 312 313 313 313 313 313 313 312 313 312 301 290 303 305 305 305 304 303 307 302 300 301 298 296 297 300 302 306 309 307 309 308 309 310 312 316 316 314 313 313 312
312 313 312 313 313 313 313 313 312 313 313 313 313 309 300 296 306 304 302 300 302 302 299 305 304 301 299 296 301 300 296 299 301 304 306 309 304 305 312 314 312 312 313 312 313
311 312 311 312 312 312 313 312 312 313 314 314 314 307 296 306 306 305 305 303 304 304 302 303 303 300 298 301 301 296 296 292 300 302 303 306 299 308 311 310 310 311 313 314 313
312 312 311 311 311 311 312 312 313 314 314 314 306 302 294 310 304 306 305 301 302 303 302 305 300 296 296 293 291 293 290 292 295 302 302 302 299 307 311 310 308 309 311 313 314
311 311 311 311 311 312 312 311 311 312 311 311 309 299 300 299 305 308 307 304 301 300 299 297 293 291 289 289 286 288 290 293 293 299 301 300 299 304 307 308 308 309 310 312 312
310 310 311 311 312 312 308 301 297 293 296 293 295 296 298 301 304 304 307 302 301 297 289 292 286 286 289 292 293 295 293 293 296 300 299 299 300 302 306 307 305 307 308 310 311
309 309 310 311 312 311 304 298 298 297 289 298 298 298 301 301 294 298 303 295 294 288 292 289 286 291 294 294 293 292 291 291 295 299 299 298 298 303 305 306 307 308 308 308 309
309 309 310 310 310 304 300 300 303 299 289 293 298 299 299 299 294 295 299 296 291 288 288 286 289 295 293 291 291 292 290 291 291 296 297 295 294 297 302 303 305 306 308 308 309
309 309 309 309 302 301 299 305 301 299 283 289 294 297 299 298 293 300 300 296 292 287 288 287 291 290 290 290 292 288 295 294 293 291 287 295 286 294 298 300 302 304 304 305 309
309 309 309 308 299 297 303 303 301 295 272 291 294 303 300 295 296 298 304 297 289 289 288 286 288 288 287 290 294 290 297 295 294 291 290 290 286 292 297 297 300 303 305 305 307
309 309 309 303 299 302 305 301 298 281 271 287 293 291 291 294 294 298 297 302 299 291 291 289 293 291 289 292 292 294 293 293 292 288 282 289 288 288 293 297 299 302 305 307 307
308 308 306 305 297 303 301 295 280 274 289 285 287 290 289 289 290 293 292 290 288 285 285 290 291 294 294 289 291 289 284 279 278 280 282 291 288 291 295 299 301 302 305 306 307
307 306 304 305 303 303 296 286 273 285 285 291 290 289 285 289 289 290 289 286 292 290 284 281 280 291 296 291 286 285 284 279 275 278 282 291 285 290 299 302 304 305 306 313 316
306 298 300 303 304 300 290 278 279 285 289 287 289 284 284 287 288 288 287 287 290 291 284 283 284 293 294 294 291 287 283 287 283 286 282 286 291 296 299 300 302 303 311 314 316
298 296 298 305 303 297 286 283 286 292 291 291 283 285 281 284 284 285 286 291 290 294 292 287 281 290 292 293 293 290 292 282 282 277 276 284 287 288 295 297 301 301 310 314 317
295 294 301 301 302 291 278 284 289 293 294 289 286 285 286 285 285 285 286 290 293 292 293 288 284 285 290 287 285 286 285 285 285 283 280 279 284 295 296 299 302 301 313 316 318
293 289 301 301 288 286 281 289 293 291 295 292 291 288 286 287 285 285 285 289 295 293 287 290 285 281 284 291 294 290 287 287 280 280 285 284 286 300 299 301 303 312 316 317 318
291 291 302 298 280 280 287 290 292 291 292 291 289 290 290 286 283 287 289 294 295 293 289 289 282 277 279 285 292 288 291 291 288 286 284 283 285 300 300 302 307 313 315 317 317
291 287 290 290 289 284 285 287 288 295 293 293 291 291 288 286 288 286 287 292 295 294 297 293 284 281 275 282 287 286 289 290 288 283 285 286 290 295 298 302 311 313 315 317 319
291 287 289 282 287 288 288 289 288 288 293 293 290 289 287 284 285 285 288 289 293 296 293 291 283 286 286 288 289 289 289 289 287 288 284 289 291 295 298 300 311 314 316 317 318
288 289 294 291 290 287 288 286 288 290 290 288 287 290 289 286 288 285 288 287 286 291 290 292 282 287 284 288 289 287 290 290 289 290 289 290 291 299 311 311 312 315 316 316 318
293 294 294 292 290 288 285 289 289 292 292 294 291 289 288 291 294 294 293 292 290 287 286 287 285 284 280 288 289 283 288 289 290 293 293 288 294 300 310 312 310 314 316 317 318

GFSSW_sfc_thetae_027.txt.gz
Theta_e
312 312 312 313 313 313 313 314 314 314 314 315 315 315 315 315 315 307 298 304 310 322 328 316 324 319 312 308 316 305 294 292 295 298 301 309 309 314 317 313 313 316 316 319 322
312 312 312 313 313 313 313 313 314 314 314 314 314 314 314 314 306 301 308 316 322 327 313 304 304 314 302 303 312 304 294 295 300 303 302 305 305 311 313 312 311 312 318 320 320
311 312 312 313 313 313 313 313 313 313 314 313 313 314 313 312 295 294 326 324 324 325 318 311 307 306 302 310 307 308 303 303 303 304 306 307 306 308 307 305 308 309 314 316 316
312 312 313 313 313 313 313 313 313 313 313 313 313 313 312 305 281 297 327 322 320 313 315 309 305 298 295 300 309 304 310 311 310 310 312 310 312 309 307 308 312 312 314 315 315
311 312 312 312 312 312 313 313 313 313 313 312 312 312 305 295 294 302 314 309 305 312 312 306 300 298 293 295 299 299 306 309 311 312 313 316 313 312 311 312 314 314 314 314 313
311 311 312 312 312 312 313 313 313 312 312 312 312 311 301 290 303 304 304 303 301 299 298 305 300 301 296 295 298 298 301 302 305 307 308 307 307 309 310 314 313 314 313 313 312
311 311 311 311 312 312 313 312 312 312 312 313 312 308 300 296 305 305 303 301 301 300 297 300 305 300 298 294 298 298 294 298 299 298 301 307 302 304 310 312 311 312 311 311 311
310 311 311 311 311 311 313 313 313 314 315 314 312 306 295 306 305 304 304 302 303 303 301 302 301 297 296 298 298 294 293 289 297 300 301 302 296 305 310 309 309 310 311 311 311
310 311 310 310 311 311 313 313 313 315 314 314 305 300 294 310 304 307 306 301 302 301 301 304 298 294 294 291 289 291 288 289 293 300 301 300 298 305 308 308 308 309 309 310 311
309 310 310 310 311 311 311 312 312 310 311 311 308 295 297 295 300 303 304 303 299 298 297 295 292 288 287 288 284 287 288 291 290 296 299 297 297 302 305 305 305 305 307 308 309
309 309 310 310 311 311 307 300 296 293 295 292 294 294 296 300 303 300 303 300 298 295 288 290 285 284 289 291 292 290 290 289 294 298 297 296 297 299 302 303 304 305 306 307 309
309 309 309 310 310 310 301 296 298 296 289 297 297 297 299 301 295 299 303 293 292 286 289 286 284 290 292 292 291 289 288 288 293 297 295 295 295 299 301 302 304 304 305 306 307
308 309 309 310 309 302 298 300 302 297 288 292 297 297 297 298 294 294 298 294 290 287 287 284 288 293 291 289 288 288 287 288 289 294 295 293 291 294 298 301 304 305 306 306 306
309 309 309 308 301 298 298 303 302 297 280 288 293 296 298 297 293 301 301 295 290 286 287 285 289 289 288 287 289 284 292 292 292 289 284 292 283 291 295 297 299 301 302 302 305
308 308 309 308 298 297 301 301 301 294 270 290 292 300 298 293 295 297 303 298 289 288 287 284 286 285 285 287 290 287 292 292 291 288 285 287 283 290 293 293 297 300 301 303 305
308 308 308 301 298 301 303 301 295 279 270 286 292 291 290 292 293 297 297 300 299 292 289 287 292 289 287 290 291 293 291 289 289 286 279 286 285 287 290 293 295 299 301 303 303
308 308 306 304 295 300 299 293 279 274 288 285 286 290 289 287 289 292 291 290 287 283 284 288 287 291 292 286 290 288 281 277 276 278 279 288 286 288 293 296 297 298 300 302 302
307 306 303 304 301 300 294 285 272 284 285 290 289 289 284 287 287 289 288 286 292 290 285 282 280 289 295 289 286 284 282 277 275 277 280 289 283 288 296 299 301 301 301 301 305
305 296 297 301 303 298 288 277 278 284 289 287 288 283 282 286 287 287 285 287 291 291 285 284 283 292 293 293 291 286 280 285 279 283 279 283 288 294 297 298 298 298 299 301 309
295 294 297 302 301 294 285 282 284 291 291 290 282 285 280 283 283 283 284 291 290 293 291 287 280 289 292 292 292 288 290 280 278 275 275 281 284 286 291 295 297 297 298 303 313
294 292 300 300 299 289 279 282 288 293 292 289 286 284 284 284 285 283 285 289 292 291 292 287 283 284 289 285 283 286 284 284 283 281 277 277 281 292 294 295 296 298 300 309 315
290 287 300 298 287 283 280 287 293 291 295 292 291 287 286 286 284 284 285 289 293 292 286 289 283 280 283 289 291 289 286 286 278 279 281 281 282 296 293 295 298 305 305 314 316
291 290 299 296 278 278 285 289 291 291 291 290 289 291 289 285 282 286 288 292 292 291 287 288 281 277 278 284 289 286 289 288 287 284 281 279 282 295 296 296 302 307 311 315 318
293 285 288 288 288 283 285 286 287 294 292 293 290 291 288 285 287 284 286 291 293 293 297 293 282 280 275 280 285 283 288 289 286 280 283 284 286 291 294 295 298 310 313 312 318
290 285 288 282 284 287 288 286 286 287 292 292 289 289 288 285 285 284 287 289 292 295 292 288 282 283 285 286 287 286 286 288 286 287 283 286 287 292 294 297 299 310 313 316 318
287 286 290 286 290 289 289 287 287 288 289 288 288 289 288 285 286 285 288 287 287 289 287 292 282 285 283 287 287 286 287 288 289 289 288 289 288 297 299 307 309 311 315 316 317
290 291 292 287 285 284 286 289 288 291 291 293 291 290 287 289 293 293 293 292 291 288 286 286 284 281 278 285 285 282 286 288 289 290 289 285 292 298 298 302 310 311 316 317 318

GFSSW_sfc_thetae_030.txt.gz
Theta_e
312 312 312 313 313 313 313 313 313 313 314 314 314 314 314 314 314 305 297 302 309 322 325 310 322 320 311 311 312 304 293 291 295 298 300 305 303 310 314 312 312 315 314 317 320
312 312 312 313 313 313 313 313 313 313 313 314 314 314 314 313 304 300 306 313 316 321 311 304 305 313 303 302 311 301 292 294 300 302 302 304 303 305 307 306 308 312 315 318 318
311 312 312 313 313 313 313 313 313 314 313 313 313 313 313 311 293 291 323 319 319 318 313 310 308 305 301 304 304 306 299 299 300 303 304 304 304 308 306 304 307 307 310 313 314
311 312 312 312 312 312 312 313 313 313 313 313 312 312 312 302 281 296 322 316 315 312 311 308 304 297 295 300 306 302 308 308 306 307 307 304 309 308 309 307 311 310 311 311 312
311 312 312 312 312 312 312 313 313 313 313 312 312 312 303 293 292 303 313 309 303 301 307 307 300 298 292 295 302 304 305 310 313 312 311 314 312 311 312 316 315 315 315 312 311
310 310 311 311 311 312 312 313 313 313 313 312 312 311 299 288 302 304 304 304 300 297 295 302 300 300 295 294 298 297 301 303 306 306 308 307 307 307 309 313 313 313 312 312 311
310 310 310 310 311 311 313 313 313 313 314 313 312 309 298 294 304 306 304 301 301 302 296 298 305 300 296 293 297 297 293 295 297 299 301 306 302 303 310 312 310 311 311 312 312
310 310 310 310 311 311 312 313 313 314 316 314 313 304 293 305 305 304 303 301 303 302 300 299 299 296 295 296 296 293 292 290 297 297 299 303 296 305 309 309 309 310 310 310 310
309 310 310 310 311 311 312 312 313 315 315 314 303 299 292 307 303 306 304 301 300 301 300 303 297 293 293 290 287 290 288 287 291 298 299 299 297 303 307 306 305 306 306 308 309
309 310 309 310 311 311 311 312 312 311 312 311 308 294 296 295 299 302 304 303 299 297 295 294 291 287 287 287 282 285 285 289 289 294 298 295 296 301 304 305 305 304 306 306 306
309 309 310 310 310 311 306 299 295 293 294 291 293 293 295 299 302 300 302 299 296 293 286 289 284 283 287 291 291 289 287 287 291 295 294 294 295 298 300 300 301 303 304 305 307
309 309 309 309 310 310 299 295 296 296 288 297 296 296 298 298 294 298 302 292 291 286 288 285 282 288 291 290 289 288 285 285 290 294 293 292 291 295 297 299 301 302 303 303 304
309 308 308 309 309 301 296 299 300 296 287 291 295 295 297 296 293 294 296 293 289 286 285 282 286 291 290 288 287 286 285 286 287 292 294 291 290 293 296 298 300 301 302 304 304
309 308 308 308 300 297 297 301 301 296 280 286 291 294 297 296 291 300 299 294 290 286 286 284 288 287 286 286 287 282 290 290 290 287 283 290 281 290 294 295 297 299 300 302 303
307 308 307 307 296 295 299 300 298 292 269 288 291 299 297 291 293 295 302 295 288 289 289 285 285 284 283 285 289 285 291 289 288 286 283 286 282 288 291 291 293 297 299 300 301
308 308 307 300 300 299 301 297 294 279 270 286 291 290 290 291 291 294 295 298 297 292 291 288 290 288 286 289 289 291 288 287 286 284 278 284 283 285 288 291 292 296 298 300 300
308 308 304 303 294 299 297 291 279 272 287 284 285 289 288 286 288 290 289 288 287 283 283 287 286 290 290 285 287 286 281 275 275 275 277 286 283 287 291 294 295 296 297 299 300
307 304 303 303 299 299 292 283 271 283 283 290 288 288 284 285 286 287 286 285 292 289 285 281 279 287 292 286 283 282 281 276 274 275 277 287 281 286 294 297 298 298 298 298 298
304 296 296 299 302 296 287 277 277 283 288 287 287 283 281 285 285 285 283 285 289 290 283 283 282 292 293 292 290 284 279 284 278 280 276 281 285 291 295 295 296 296 298 297 298
294 294 296 301 299 293 284 282 283 290 291 289 281 285 279 282 282 282 282 288 288 292 292 287 280 289 292 293 291 286 288 278 277 274 274 279 281 284 289 292 295 296 296 298 302
292 292 298 298 297 289 278 281 287 292 292 288 285 285 283 283 283 282 283 288 291 290 291 287 283 283 288 285 282 285 282 283 280 278 276 276 279 289 291 293 293 295 300 306 307
290 287 299 296 286 280 278 286 292 290 294 292 290 288 285 285 283 283 283 287 292 291 286 288 283 280 283 287 290 286 284 284 278 278 279 278 279 291 292 293 295 298 310 311 314
292 291 298 294 277 277 284 287 290 290 290 290 289 290 290 286 282 285 287 292 292 289 286 287 281 277 278 284 287 284 287 285 284 283 278 277 280 292 293 295 296 296 311 313 317
293 284 288 287 286 282 286 286 286 293 291 292 289 291 288 285 287 284 285 290 292 291 296 291 281 279 274 279 284 282 285 286 285 279 280 281 284 290 292 293 296 300 308 313 318
288 284 288 280 281 283 288 287 286 287 292 292 288 289 288 283 285 284 287 288 291 293 289 286 281 281 283 285 286 285 285 286 284 286 282 284 285 290 292 294 297 303 307 315 317
282 284 287 283 285 283 285 283 287 288 288 288 287 289 289 286 286 284 287 288 287 291 288 288 281 283 282 285 286 284 285 285 286 286 286 288 287 294 296 297 298 304 311 315 317
293 289 287 284 282 279 281 286 286 289 290 292 291 289 288 289 293 292 292 291 291 288 286 286 285 281 276 284 283 278 282 284 285 289 288 284 289 294 295 298 300 307 312 315 318

GFSSW_sfc_thetae_033.txt.gz
Theta_e
312 312 313 313 313 313 313 314 314 314 314 314 314 314 314 314 314 307 299 303 311 321 323 309 309 315 319 317 314 310 301 297 298 298 301 309 309 315 317 316 317 319 320 322 328
311 312 312 313 313 312 313 313 313 314 314 314 314 313 313 313 306 301 308 316 317 321 310 305 300 313 312 311 315 307 302 300 304 304 304 306 308 311 311 312 313 316 320 321 323
311 312 312 312 312 312 313 313 313 313 313 313 313 313 312 312 297 295 322 316 318 315 311 309 308 306 307 306 311 310 302 306 305 305 306 306 307 310 310 309 313 313 314 318 320
311 311 312 312 312 312 312 313 313 314 314 313 313 312 312 305 287 303 316 316 315 308 311 311 306 299 300 303 308 303 309 309 308 306 305 304 307 306 308 310 315 317 320 319 319
310 311 311 311 312 312 312 313 314 313 313 313 313 313 306 298 296 304 314 311 308 305 300 305 301 300 297 300 304 304 306 310 311 311 308 309 309 309 312 316 320 321 321 320 320
310 311 311 311 311 312 312 313 313 314 314 313 313 312 302 292 304 307 308 308 305 303 301 301 305 303 300 299 300 304 306 307 309 312 313 311 311 313 314 318 317 317 318 319 319
310 310 310 311 311 311 312 313 313 313 315 313 313 309 300 298 307 309 308 307 306 304 300 301 301 303 301 297 302 301 298 302 305 307 308 311 306 307 314 315 314 315 316 318 319
310 310 310 310 311 311 312 313 313 314 316 315 314 307 297 307 310 308 309 306 307 306 303 304 301 298 302 303 299 297 298 293 301 302 305 305 299 308 312 311 311 313 315 316 318
310 310 309 310 311 311 312 312 314 315 315 314 307 304 296 310 303 306 309 303 304 304 304 304 301 296 298 295 293 295 291 293 296 303 302 302 300 307 311 311 312 314 315 315 316
309 310 309 309 310 311 311 312 314 315 313 311 309 298 300 297 302 304 307 306 301 300 299 298 297 293 294 293 286 289 290 293 294 299 301 300 300 306 309 309 310 312 313 314 315
309 309 308 309 310 310 308 305 301 299 300 295 296 295 298 302 305 302 305 301 300 297 292 294 290 287 291 294 295 294 292 292 296 300 299 298 300 303 306 307 307 309 310 311 313
309 308 308 309 309 309 306 300 300 301 294 299 298 298 300 301 295 300 303 295 294 290 293 291 287 291 293 293 292 292 291 291 294 298 297 299 298 302 304 304 306 307 308 310 312
308 308 308 308 309 305 303 302 306 301 293 295 298 296 298 300 295 296 299 297 292 289 290 289 291 293 291 291 290 291 290 291 291 295 297 296 295 298 303 305 306 307 309 310 311
308 307 308 308 303 302 302 306 306 302 288 288 293 296 299 299 293 300 302 297 293 289 290 289 293 290 290 288 291 287 293 293 292 291 288 296 287 296 300 301 303 305 307 308 310
307 307 307 306 302 301 303 306 304 300 277 290 292 302 299 294 295 295 302 298 292 291 292 288 289 288 288 288 291 289 294 292 291 290 290 291 288 293 299 297 300 304 305 308 309
308 308 307 304 303 304 305 304 300 285 275 286 293 291 292 293 293 295 296 299 299 293 294 292 296 292 291 292 291 293 291 291 291 290 283 289 288 290 294 297 300 303 305 307 308
308 307 305 304 301 305 303 299 285 279 289 285 287 291 290 288 289 291 290 290 289 285 286 290 291 294 294 289 292 290 287 281 280 281 281 290 287 291 298 299 301 302 305 307 310
307 303 306 306 307 306 299 290 278 284 285 291 290 290 286 288 289 289 288 286 292 290 286 284 281 289 293 290 287 288 287 282 276 279 282 289 285 291 299 302 304 304 306 308 310
304 304 304 306 307 303 296 285 283 285 289 288 289 285 285 287 288 288 287 287 290 291 283 283 283 293 294 295 292 288 284 291 284 286 283 286 290 295 298 300 302 304 307 310 313
300 301 303 305 305 301 292 285 287 291 292 291 284 287 283 286 286 286 286 290 289 292 294 288 281 290 291 295 294 291 293 284 285 278 277 284 286 289 294 297 301 303 307 312 321
300 299 304 303 304 296 288 287 289 293 293 289 287 286 286 286 286 285 285 289 292 292 293 291 286 286 290 288 285 288 286 288 288 286 281 282 287 297 297 299 300 302 308 316 321
298 294 303 302 293 289 288 289 292 292 295 292 292 290 288 288 286 286 285 288 294 293 288 292 288 282 284 291 293 291 288 289 284 283 285 284 286 298 300 300 301 302 304 313 320
293 294 303 300 288 288 289 289 290 290 291 291 290 291 292 288 284 288 288 293 294 292 290 292 286 280 282 288 291 287 289 290 290 289 285 282 286 299 299 300 302 302 303 308 320
295 290 295 295 292 288 286 287 286 293 292 293 291 292 290 286 290 287 287 291 294 293 296 295 288 284 280 283 287 285 288 289 288 285 285 286 288 293 296 298 300 302 305 309 321
292 290 291 286 288 287 288 288 286 287 292 293 290 289 289 285 285 286 289 290 293 294 294 292 284 286 287 288 288 287 286 288 286 288 284 288 289 293 296 299 300 304 305 307 317
289 288 292 288 288 288 287 287 287 289 288 287 288 290 290 286 287 285 288 288 288 292 291 292 285 287 283 287 287 284 287 288 288 288 288 289 289 297 299 301 301 302 303 306 315
294 293 292 288 287 286 287 287 287 288 290 293 291 289 288 291 293 294 294 293 291 289 288 288 287 284 280 285 285 281 286 287 288 290 290 286 291 295 297 299 302 305 308 309 315

GFSSW_sfc_thetae_036.txt.gz
Theta_e
312 313 313 313 313 313 313 313 314 314 314 315 315 315 315 314 315 310 303 307 311 322 322 311 308 317 320 320 319 318 307 304 304 304 304 309 309 315 320 320 321 323 325 327 336
312 313 313 313 313 313 313 313 314 314 314 315 315 314 314 314 310 306 313 316 318 321 310 306 304 311 312 313 316 312 307 307 311 310 305 307 311 313 315 318 319 321 324 326 334
312 312 312 312 313 313 313 314 314 315 315 315 314 314 314 313 303 305 321 320 318 317 311 310 309 306 308 313 312 312 307 312 313 313 310 307 310 313 312 314 320 320 321 322 324
311 312 312 312 312 313 313 314 314 315 315 315 314 314 314 309 293 306 315 317 318 313 309 310 308 303 303 306 312 307 313 313 313 313 308 307 311 310 312 312 321 321 322 323 324
311 311 312 312 312 312 313 314 314 315 315 315 314 314 311 302 299 308 314 316 312 309 304 302 305 304 300 304 308 307 309 313 314 314 313 311 308 310 312 315 317 318 319 321 324
311 311 311 311 312 312 313 314 314 314 314 315 314 313 307 296 308 311 312 312 310 308 305 304 304 307 304 303 303 307 308 310 311 311 313 311 312 313 316 319 319 321 322 323 322
310 311 311 311 311 312 313 313 313 314 315 317 314 312 305 301 310 313 312 310 310 308 305 306 306 304 305 301 306 305 301 305 308 310 309 312 309 310 316 319 319 320 321 322 323
311 311 310 311 311 311 312 313 313 314 316 316 315 311 302 310 313 311 311 309 310 311 308 309 306 302 301 306 303 299 301 296 304 307 309 308 302 312 317 317 317 318 319 320 322
310 311 310 310 310 311 312 312 313 315 316 315 313 308 299 310 305 308 309 306 308 308 308 307 304 300 299 296 296 299 293 297 299 306 306 305 303 311 315 315 315 317 318 319 320
310 309 309 309 310 311 311 312 315 316 314 313 312 303 303 299 305 307 309 308 305 304 303 302 300 296 296 294 288 292 294 296 296 303 304 303 303 308 313 313 314 316 317 318 320
309 309 308 309 310 310 311 311 307 304 305 300 300 299 300 305 307 304 307 305 304 301 296 300 294 291 294 296 295 295 296 296 299 303 302 302 302 305 310 311 312 313 316 317 319
309 308 308 309 310 310 311 304 303 305 297 303 302 302 304 305 298 301 306 299 298 294 297 295 291 296 296 295 294 294 293 294 299 301 302 301 301 305 307 309 311 312 314 315 317
309 308 308 309 309 310 308 306 311 310 298 298 301 300 300 302 297 298 301 299 296 294 294 291 294 297 294 293 291 292 291 293 294 299 301 300 298 302 307 309 310 312 313 314 315
309 308 309 308 307 310 306 310 312 310 293 292 296 299 300 301 296 302 303 299 296 292 294 293 296 293 293 292 292 288 294 294 294 294 290 300 290 299 303 305 307 310 311 313 314
309 308 308 307 309 308 308 312 311 306 282 292 295 304 301 296 297 297 303 300 293 293 294 291 293 293 291 292 294 291 295 294 294 293 293 294 291 297 303 301 305 309 310 312 314
309 308 307 307 311 310 312 312 307 291 278 289 295 294 295 296 295 297 298 301 300 295 296 294 299 297 295 296 295 296 293 292 293 292 286 293 292 294 298 301 305 308 310 311 312
308 307 308 311 307 313 313 305 291 284 292 288 290 294 294 292 293 294 293 292 290 287 288 292 293 298 298 293 295 293 288 281 280 283 283 293 291 294 302 303 304 305 308 311 313
307 304 307 312 315 313 309 296 283 287 288 294 293 293 290 292 292 293 291 289 293 293 289 286 283 293 296 294 290 290 288 282 277 280 284 292 288 294 303 305 307 308 310 311 313
305 314 313 313 315 312 301 289 288 289 292 291 292 289 289 291 291 292 291 289 292 293 287 286 284 294 296 298 295 291 286 293 286 287 286 289 294 299 303 303 305 306 310 314 319
307 310 309 311 314 308 296 287 290 293 294 293 287 290 287 289 289 290 289 292 290 293 296 290 284 292 293 294 296 293 294 284 287 279 279 287 290 291 298 299 303 305 309 313 323
308 303 308 310 311 302 291 290 291 295 295 292 290 288 289 288 290 289 288 292 293 293 295 293 289 288 293 290 288 290 289 290 290 287 281 284 288 300 300 303 304 306 308 310 320
304 298 309 309 296 299 292 291 293 294 297 295 295 293 291 291 289 289 288 291 296 296 290 294 291 285 288 293 295 291 290 288 285 284 288 287 291 304 304 304 305 306 308 311 322
297 300 310 306 292 290 292 291 293 293 294 292 291 293 295 289 286 290 291 295 296 295 292 295 289 283 285 291 294 290 291 290 291 291 287 285 291 304 304 303 305 306 307 310 316
297 294 301 301 298 291 290 290 290 294 294 295 293 295 292 290 293 288 290 293 295 295 297 296 291 287 283 286 290 287 289 292 291 286 287 289 292 298 301 301 304 306 307 308 311
297 295 296 292 295 293 293 291 289 289 294 295 292 291 290 286 289 289 291 291 294 296 296 294 287 289 290 291 291 289 289 290 289 290 287 289 291 297 300 302 304 306 306 307 309
295 292 295 295 294 292 291 290 288 290 291 290 289 292 292 289 289 286 290 291 288 293 292 293 287 290 287 290 290 288 290 290 290 291 291 292 291 299 301 302 302 303 305 306 309
299 296 292 293 292 289 289 290 290 292 293 294 292 291 290 293 295 298 296 296 294 289 289 289 287 286 284 289 288 285 289 290 291 292 292 289 294 299 298 299 301 303 305 307 309

GFSSW_sfc_thetae_039.txt.gz
Theta_e
313 313 313 313 314 314 314 314 315 315 316 316 316 316 316 316 315 314 308 311 313 324 322 311 312 311 319 316 320 320 309 305 307 307 307 313 312 316 320 318 322 326 327 330 336
313 313 313 313 313 313 314 314 315 316 316 316 316 316 316 315 314 309 316 319 320 322 311 309 307 310 311 314 316 314 309 309 313 313 310 312 312 313 314 315 319 323 327 331 337
312 312 313 313 313 313 314 314 315 316 316 317 316 316 315 315 309 310 322 326 320 319 312 311 310 309 306 312 312 313 309 314 315 316 316 313 311 315 313 313 319 321 324 328 335
312 312 312 312 313 313 313 314 315 316 316 316 316 316 315 315 297 309 320 318 320 316 310 309 309 305 304 304 312 308 312 314 315 316 316 312 313 311 314 315 319 325 327 327 327
312 312 312 312 312 313 313 314 315 315 315 315 316 316 315 308 303 311 316 319 315 311 307 305 304 306 303 305 307 308 310 313 314 315 316 316 312 312 313 317 320 322 325 325 325
311 312 312 312 312 312 313 314 314 314 315 316 317 315 313 302 310 313 313 313 312 310 308 307 304 307 305 305 305 307 309 309 312 312 314 313 313 314 315 318 318 318 319 323 324
311 311 311 311 311 312 312 313 314 314 315 317 318 315 310 303 312 313 313 311 312 310 306 309 308 304 305 304 308 307 303 306 308 310 310 313 308 309 316 319 318 318 319 320 323
311 311 310 311 311 311 312 313 313 314 316 318 316 316 306 311 313 310 311 309 311 312 310 311 310 305 303 304 302 301 302 298 305 307 309 308 303 311 316 317 317 318 320 322 325
310 311 310 310 311 311 312 312 313 316 316 316 316 313 304 312 306 309 310 306 308 309 309 309 308 303 302 297 295 297 294 298 300 307 306 306 303 310 314 315 316 318 319 321 323
311 310 309 310 310 311 311 311 316 315 317 317 314 305 307 301 306 307 310 309 305 306 305 304 304 299 299 296 289 292 294 297 297 303 305 303 304 308 312 312 313 315 318 320 321
311 311 310 309 310 311 311 314 310 309 310 302 303 302 302 307 309 305 308 305 306 303 298 302 297 295 297 299 298 297 295 294 299 304 303 302 303 306 310 310 311 314 317 319 320
311 309 309 309 310 311 312 307 306 307 299 306 305 303 305 306 300 303 307 300 300 295 299 297 293 298 299 298 296 295 293 294 298 301 303 302 301 305 308 310 311 312 314 317 319
310 310 309 310 310 311 309 308 313 312 301 301 303 302 302 303 300 300 303 301 297 295 295 293 296 298 296 295 294 294 292 293 293 298 301 301 298 302 307 309 311 312 314 316 317
310 310 310 309 307 313 309 312 314 312 295 296 298 301 302 303 298 304 304 300 298 294 295 294 298 295 294 293 295 291 296 295 294 292 289 299 291 300 304 306 308 311 312 313 316
310 310 309 306 313 310 311 315 314 310 286 296 297 306 303 299 300 300 304 301 295 295 295 292 294 294 293 294 296 293 297 295 294 292 292 293 291 297 303 303 306 309 312 314 316
310 310 308 309 315 312 315 314 310 295 284 292 297 296 297 300 299 301 300 303 301 295 296 295 300 298 296 297 297 299 295 294 294 292 286 291 291 293 298 302 306 310 312 314 315
309 309 308 314 311 315 315 308 294 288 295 292 293 297 296 296 296 297 295 295 292 288 288 293 294 297 299 295 298 296 291 284 282 283 283 293 291 294 301 304 306 308 310 313 315
308 306 311 314 317 315 311 300 287 291 292 297 295 296 293 294 294 294 294 291 294 293 291 286 285 293 296 296 293 293 291 284 278 279 283 291 287 293 304 307 309 309 311 312 315
306 315 314 317 316 314 303 292 293 293 293 293 295 292 292 294 293 294 292 292 293 294 288 287 287 295 297 299 296 293 288 294 287 288 283 286 291 299 302 304 307 308 310 312 315
308 311 313 315 317 310 299 293 294 296 296 295 290 292 289 291 292 292 292 294 293 295 297 292 285 293 295 298 298 295 297 286 289 280 278 285 288 290 297 300 305 307 310 312 315
309 303 311 315 313 304 294 294 294 297 296 294 293 291 292 290 292 291 291 295 296 295 297 294 291 290 294 292 292 292 290 293 291 287 282 281 286 298 300 302 304 307 310 312 318
307 300 312 312 298 301 295 294 294 296 299 296 297 294 292 292 291 291 290 294 298 297 291 296 292 286 289 295 298 294 291 292 285 282 288 287 287 300 303 308 307 308 309 312 322
301 301 311 308 296 295 298 296 295 295 296 295 293 295 296 292 288 293 294 297 298 296 293 296 290 284 287 291 295 291 293 294 294 290 286 283 286 301 305 307 308 308 309 310 315
301 296 302 303 300 296 296 295 292 296 296 296 295 295 294 293 295 291 292 296 297 296 299 296 292 287 283 287 287 285 290 293 293 287 287 287 288 291 297 303 306 307 308 309 313
305 299 299 294 296 297 296 296 293 292 296 297 293 293 291 289 291 290 293 295 296 297 296 293 287 290 291 292 291 290 291 291 290 290 287 289 289 293 297 300 304 307 307 308 311
298 296 298 296 298 294 294 293 293 294 295 293 292 294 292 289 291 290 292 293 291 295 293 295 288 291 288 292 292 290 291 291 291 292 291 291 290 297 300 303 303 304 305 306 310
300 298 296 294 297 294 292 292 292 293 295 297 295 294 294 295 298 300 299 300 298 292 290 292 291 288 285 290 290 286 291 292 292 294 293 289 294 299 299 301 303 304 305 306 309

GFSSW_sfc_thetae_042.txt.gz
Theta_e
313 313 314 314 314 314 314 315 315 316 317 317 318 317 317 317 317 313 310 311 315 326 322 310 310 311 311 310 315 316 307 304 305 306 307 313 311 315 317 314 317 321 323 329 334
313 313 313 314 314 314 314 314 315 316 317 317 318 318 317 317 312 310 318 321 323 324 310 308 307 309 306 308 311 308 305 307 312 312 311 313 312 313 313 312 315 318 326 330 333
312 313 313 313 313 313 314 314 315 316 317 317 317 317 317 316 311 309 324 326 326 320 312 311 308 308 304 307 308 309 305 310 312 315 316 313 313 315 311 309 314 316 322 327 331
312 313 313 313 313 313 313 314 315 316 316 316 317 317 318 314 299 311 324 324 326 318 312 308 306 303 302 302 306 303 309 311 313 315 314 313 316 314 313 312 317 319 324 327 327
312 312 312 313 313 313 313 314 314 315 315 316 317 317 315 311 306 314 325 321 317 314 309 306 303 303 301 303 305 303 306 309 311 312 313 315 313 313 314 316 318 319 319 324 327
311 312 312 312 312 312 313 313 313 314 314 316 317 318 312 304 311 313 313 313 312 310 308 308 305 306 301 301 302 305 305 306 308 310 311 310 311 314 316 319 317 318 318 324 325
312 311 311 311 311 312 313 313 313 314 315 316 318 316 309 307 311 313 312 310 311 310 306 308 308 304 304 300 305 304 300 303 305 306 307 311 306 308 316 318 317 318 318 319 326
313 312 311 311 311 312 312 313 313 314 316 317 318 313 307 312 312 310 310 308 311 310 309 310 309 305 302 304 301 297 299 295 303 304 306 306 300 309 313 314 315 317 319 319 321
313 312 311 311 311 312 312 312 313 316 318 317 313 312 305 312 307 309 310 306 308 309 309 309 307 302 302 297 294 296 290 293 297 304 304 303 301 308 312 312 313 315 317 319 320
312 311 310 310 311 311 312 311 315 314 316 316 314 305 308 303 307 308 310 308 305 306 305 305 303 299 299 295 287 291 292 294 294 299 301 301 302 307 310 309 311 313 316 318 321
311 311 312 311 310 311 311 314 309 308 312 305 303 304 305 307 309 306 308 305 305 303 297 301 296 293 297 299 298 297 295 294 297 300 299 299 301 305 308 309 309 312 315 315 317
311 311 311 311 311 311 310 309 306 307 299 306 305 305 306 306 300 304 308 300 299 294 298 296 293 298 299 298 297 296 293 293 296 299 298 298 298 303 307 308 310 312 312 314 318
310 311 311 311 311 309 312 308 313 312 299 302 304 302 303 305 300 301 304 301 297 294 295 292 295 298 297 295 294 294 293 293 292 296 297 296 295 299 304 308 310 311 314 316 316
310 310 311 310 307 312 310 313 314 313 294 297 298 301 303 303 299 305 305 300 297 293 295 294 297 295 294 293 294 289 295 294 294 292 287 296 286 296 301 303 307 309 311 314 315
310 310 310 308 310 310 311 314 313 309 287 298 299 307 303 299 301 302 306 301 295 294 295 291 293 293 292 293 296 293 297 295 294 291 291 290 288 292 298 299 304 309 311 313 315
309 310 310 313 312 313 314 314 312 295 285 294 298 297 297 300 300 302 301 304 302 297 297 295 299 297 296 298 298 299 295 295 294 292 284 289 289 290 294 298 302 307 311 312 314
309 309 308 313 309 314 313 308 293 289 297 293 294 297 296 296 297 297 296 295 292 288 288 292 294 297 299 294 297 297 292 284 282 283 282 291 288 292 298 300 302 305 309 312 314
307 307 311 310 315 315 309 300 288 294 294 297 296 296 294 297 296 295 294 292 296 293 289 286 284 292 297 293 292 292 289 283 277 279 282 290 285 290 299 302 305 307 309 312 314
305 315 313 315 316 313 302 292 292 293 296 293 294 293 293 295 294 294 293 293 294 295 288 286 286 295 295 297 296 292 288 292 287 288 283 286 290 295 299 300 302 305 308 311 313
307 310 311 317 316 309 298 293 296 298 296 295 289 293 290 292 291 292 292 296 294 297 297 292 285 293 294 296 296 295 296 288 288 279 277 284 285 287 294 298 301 304 307 310 314
308 306 313 315 311 303 294 296 297 298 297 293 293 292 292 291 292 291 291 295 297 296 298 295 290 289 294 291 290 292 291 291 290 287 280 280 284 297 297 298 298 303 307 312 313
307 298 313 312 297 301 295 297 297 296 299 297 297 295 292 293 291 291 290 294 299 297 292 296 292 286 288 294 296 295 291 291 284 283 287 286 286 300 298 297 297 297 309 310 315
303 303 313 309 296 295 298 298 299 295 296 295 294 296 297 292 289 293 294 299 299 297 294 295 289 283 285 290 294 291 292 293 293 291 286 283 285 299 297 295 298 299 306 309 311
304 298 303 304 303 298 296 295 295 300 296 297 295 296 294 292 294 291 293 297 298 297 297 296 290 285 281 285 288 285 288 292 291 286 286 287 289 294 294 295 298 300 303 308 310
304 298 300 293 295 298 297 295 294 294 298 298 295 294 293 290 291 290 294 295 298 298 298 292 287 290 290 290 291 290 289 291 289 290 286 287 288 292 296 296 297 300 303 306 308
297 296 298 295 299 297 296 294 293 295 295 293 292 294 295 291 292 290 293 294 294 297 295 295 288 290 288 291 290 289 290 291 291 290 290 290 289 296 299 300 300 302 304 305 306
303 303 296 294 297 295 295 294 293 294 295 297 295 293 293 295 298 299 300 300 299 295 291 290 290 288 284 289 289 285 290 291 292 293 292 287 293 298 297 298 302 303 304 305 306

GFSSW_sfc_thetae_045.txt.gz
Theta_e
313 314 314 314 314 314 314 315 315 316 317 317 318 318 318 318 317 309 303 312 314 325 324 308 306 306 307 304 307 309 298 301 303 304 306 312 308 313 315 310 312 315 315 327 331
313 313 314 314 314 314 314 314 315 315 316 317 317 318 318 318 310 306 318 325 326 324 308 304 303 304 299 301 301 302 297 299 308 309 307 310 310 311 312 309 309 312 319 329 329
313 313 313 313 313 313 314 314 314 315 316 317 317 317 317 317 306 305 325 328 325 320 310 308 306 302 298 300 300 301 299 304 306 310 311 311 312 315 312 307 308 309 313 323 326
312 313 313 313 313 313 313 314 314 315 315 316 316 317 318 312 295 309 326 330 328 318 311 307 302 294 293 295 300 296 302 305 306 309 308 307 311 310 312 311 313 314 315 316 318
312 312 312 312 312 312 313 313 314 314 314 315 316 317 312 306 306 311 329 329 320 313 310 305 297 295 292 296 298 297 300 303 306 308 308 310 308 308 309 314 317 317 316 315 315
312 312 312 312 312 312 312 313 313 313 314 315 316 317 309 300 308 313 320 313 313 307 303 302 299 301 296 294 293 296 298 300 302 303 304 305 307 309 310 314 316 315 314 315 314
313 312 312 312 312 312 313 313 313 313 314 316 317 315 305 301 308 307 307 302 305 307 304 305 304 300 298 295 298 298 293 297 299 301 301 304 300 303 310 312 312 315 315 315 314
312 312 311 311 312 312 312 313 312 313 315 318 318 310 301 312 306 306 305 304 306 306 305 305 305 299 296 298 297 292 292 286 293 299 301 300 293 302 306 308 310 313 315 316 315
312 311 311 312 312 312 312 312 312 314 316 319 310 305 300 312 305 307 306 305 305 305 306 308 302 296 297 291 287 289 284 286 290 296 297 297 295 302 305 306 306 309 312 315 315
311 311 310 311 311 312 312 312 313 313 313 313 312 302 307 304 305 308 307 307 303 302 302 301 296 292 291 288 281 285 286 289 289 293 295 293 294 300 304 305 305 306 308 313 314
312 311 311 310 312 311 308 306 303 302 304 304 306 304 303 305 308 305 308 305 302 299 291 295 289 285 290 293 294 292 291 290 293 297 294 292 293 296 300 300 302 305 306 308 312
311 311 311 312 312 311 305 301 302 301 295 303 304 303 305 304 299 303 308 298 297 290 294 290 286 293 296 295 293 291 289 289 293 297 294 292 292 295 297 299 301 302 305 306 310
311 311 311 311 311 306 304 308 308 306 293 299 304 302 302 302 299 299 303 299 294 291 291 287 291 296 294 291 290 290 288 288 289 293 294 292 289 292 296 298 301 303 305 306 307
310 310 310 310 306 307 306 309 307 306 288 296 298 300 302 301 296 304 305 299 294 290 291 290 294 293 291 290 292 286 293 293 291 288 282 291 281 289 293 294 298 300 302 303 305
310 310 310 309 302 303 306 307 307 303 281 297 297 305 301 296 299 301 305 299 292 292 291 289 291 290 289 292 295 290 295 293 292 288 287 287 282 287 292 292 294 297 300 303 305
309 309 309 309 306 307 310 308 305 290 283 292 298 296 295 298 299 301 300 301 299 294 294 292 296 295 294 296 296 296 292 291 290 287 280 286 285 285 288 291 294 297 300 302 304
308 307 306 308 304 311 309 303 289 285 297 291 292 295 293 293 296 297 295 291 287 284 283 289 290 294 297 291 294 291 286 281 276 276 278 287 285 286 291 295 297 297 299 302 303
307 306 309 308 308 309 305 294 283 293 292 296 294 293 291 295 294 294 292 288 295 290 284 281 281 290 296 292 288 287 287 278 274 277 279 286 282 286 294 296 299 301 300 302 303
305 308 308 311 312 309 298 287 289 293 294 292 292 290 291 294 293 292 290 291 293 292 284 283 284 294 294 295 293 287 285 292 283 285 280 282 287 292 296 297 297 298 300 299 300
301 305 307 314 312 304 292 290 294 296 295 293 286 291 287 290 289 289 289 294 293 296 295 289 283 292 293 295 294 289 292 281 284 276 275 280 282 284 291 292 295 295 297 300 304
302 302 308 311 307 297 288 292 295 298 297 293 290 289 290 289 289 288 289 293 296 295 295 291 286 287 291 288 286 288 286 287 285 283 277 275 279 296 292 293 293 295 298 300 304
301 295 308 307 292 296 292 295 298 297 298 296 296 294 291 291 288 288 288 293 298 297 291 292 287 282 285 292 294 292 290 287 281 280 283 281 281 296 294 295 296 296 299 301 304
297 299 309 306 289 289 295 295 297 296 295 293 293 295 294 289 285 291 292 297 298 295 292 291 285 280 282 286 291 287 289 288 288 286 281 279 281 297 296 296 297 296 300 302 304
299 293 300 299 297 293 292 292 291 299 297 297 294 295 292 289 291 290 290 295 298 296 299 295 288 283 279 283 286 285 287 289 288 280 283 284 286 292 294 295 297 299 300 302 302
299 295 296 289 290 292 293 294 292 291 297 296 292 291 290 285 288 287 290 292 295 298 297 293 286 287 288 290 290 288 288 289 286 287 283 286 287 290 294 296 298 300 301 301 301
293 291 293 290 294 293 293 292 291 292 292 290 290 292 291 286 288 286 289 290 289 294 290 294 286 288 285 290 290 288 289 289 290 290 289 290 289 296 297 298 297 299 299 299 301
299 299 295 291 292 289 289 291 292 292 294 295 293 290 289 291 294 295 295 294 293 291 290 286 286 285 279 289 288 281 288 290 291 292 290 286 291 297 297 297 296 297 299 299 301

GFSSW_sfc_thetae_048.txt.gz
Theta_e
314 314 314 314 314 314 314 314 314 315 316 316 317 318 318 318 317 309 302 310 313 323 324 309 305 304 303 302 304 306 296 298 303 304 306 310 308 313 314 310 313 312 314 324 328
313 313 313 313 313 314 314 314 314 315 315 316 317 317 317 318 310 305 313 326 327 324 306 302 301 303 296 299 300 298 293 297 305 309 308 309 309 311 311 310 311 313 315 320 329
313 313 313 313 313 313 313 314 314 315 315 315 316 316 317 317 305 306 325 329 328 324 308 305 304 301 293 296 297 297 295 301 304 307 308 307 307 311 308 306 310 310 311 315 318
313 314 314 314 313 313 313 313 314 314 314 315 315 316 318 312 292 308 328 330 330 316 310 306 300 292 290 292 297 293 298 300 303 306 306 304 307 306 308 308 313 314 314 314 313
313 313 313 313 313 313 313 313 313 314 314 314 315 316 310 303 306 312 330 329 324 313 308 304 297 291 287 292 295 293 296 299 300 301 305 307 305 306 307 311 314 314 315 314 314
312 312 312 312 312 312 312 313 312 313 313 314 316 317 308 297 312 310 321 318 315 308 302 302 296 297 293 292 291 294 295 295 297 297 299 299 301 304 307 312 311 312 313 314 315
312 312 311 311 312 312 313 313 313 312 313 315 317 314 304 298 309 307 315 306 302 306 302 303 301 298 295 293 295 295 291 294 295 296 297 301 297 298 305 307 308 310 312 313 315
312 312 311 311 311 311 312 313 312 312 314 315 317 309 297 311 309 305 302 302 303 303 303 303 301 297 294 295 295 291 289 283 290 295 298 298 292 300 304 304 305 307 310 312 313
313 312 312 312 312 312 311 311 312 314 315 316 307 303 299 314 303 305 304 303 303 303 303 306 300 295 294 289 286 286 281 283 287 292 293 294 291 299 302 302 302 304 305 309 311
313 312 312 311 311 311 310 311 312 312 312 313 310 300 304 303 303 306 305 306 302 300 299 299 294 290 288 286 280 283 283 286 286 291 292 290 291 295 298 298 298 300 303 306 309
312 312 311 311 311 310 307 303 297 298 303 301 304 303 306 304 306 303 307 303 301 296 289 292 286 284 288 290 292 291 289 286 290 294 292 290 291 294 295 296 296 297 300 302 305
312 312 311 311 311 310 304 299 301 299 293 302 304 304 306 304 298 301 307 296 295 288 291 288 284 290 294 292 290 288 286 285 289 293 292 290 291 294 295 295 295 296 298 300 303
310 310 310 310 310 305 301 305 308 301 291 297 302 301 302 301 297 298 301 297 292 289 288 285 289 294 292 289 289 287 285 288 288 293 293 289 288 290 295 295 297 297 298 300 301
309 309 309 309 305 301 302 308 304 302 286 294 296 299 300 299 295 303 303 298 292 289 289 288 292 291 289 289 291 285 293 292 290 287 281 289 280 288 291 293 294 295 295 297 299
308 309 309 308 299 298 305 307 304 302 280 297 296 303 299 295 297 299 303 297 291 291 290 287 289 289 287 291 293 288 294 291 291 287 283 286 280 286 289 289 292 295 296 297 298
308 309 308 304 301 303 306 304 303 289 281 292 297 295 294 295 296 299 298 299 297 291 291 290 294 293 292 295 294 295 290 289 287 284 278 284 283 283 287 289 293 296 298 299 301
308 308 306 306 299 304 303 299 286 282 296 290 291 294 292 292 294 296 295 290 286 282 282 287 288 293 296 289 292 289 282 276 275 275 276 285 282 285 290 293 295 296 298 300 301
307 306 305 307 302 304 300 292 283 291 289 295 292 292 291 293 292 294 291 287 292 289 283 279 280 288 295 290 286 285 283 275 272 275 278 286 279 284 294 297 298 299 298 299 300
305 301 304 306 308 302 294 284 286 289 293 291 292 289 290 292 291 291 289 289 292 291 283 281 283 293 294 293 291 285 282 287 278 283 280 281 285 289 295 295 296 296 297 297 298
297 299 302 309 306 299 289 289 292 297 295 294 286 290 286 289 289 288 288 293 293 294 291 287 281 290 293 294 292 288 289 279 279 275 274 279 281 281 290 291 294 294 294 296 299
298 297 304 305 303 295 285 289 294 298 296 293 289 288 289 288 288 287 288 292 295 293 293 288 285 286 290 287 285 285 283 286 284 283 278 276 278 291 291 292 291 293 295 296 298
294 292 305 301 289 290 288 293 296 295 298 294 293 292 290 291 288 287 287 292 296 295 289 290 285 281 285 292 293 289 286 286 279 280 284 282 280 292 293 293 293 293 296 299 300
292 294 303 300 283 285 291 294 295 294 295 293 291 292 292 287 283 289 291 296 296 294 290 290 282 280 280 285 289 286 289 289 286 284 280 278 279 293 294 295 294 294 297 299 301
293 288 292 293 290 287 287 290 291 297 295 295 292 292 289 287 288 286 288 293 294 295 300 294 287 282 278 283 288 283 287 289 285 278 280 281 283 288 292 293 294 296 298 298 299
291 287 288 284 286 287 287 290 289 289 294 292 289 291 287 283 285 285 288 290 293 296 294 292 286 287 288 289 289 288 287 288 286 285 281 284 285 289 291 294 295 297 299 299 300
288 286 288 286 289 288 288 286 289 291 290 289 287 290 288 283 286 284 287 286 286 290 293 293 286 289 286 289 288 286 288 289 289 288 288 288 286 294 295 296 296 297 298 298 300
293 292 292 287 286 284 284 287 289 289 291 293 290 288 287 289 292 292 292 292 290 288 288 287 286 284 280 287 287 282 288 289 290 292 289 284 288 293 294 295 296 297 300 304 306

GFSSW_sfc_thetae_051.txt.gz
Theta_e
313 313 313 313 313 313 314 314 314 314 315 315 316 317 317 317 317 308 300 304 311 322 323 307 303 302 301 299 303 305 296 297 301 303 303 310 307 310 312 310 311 313 312 316 336
314 314 314 314 314 313 313 313 314 314 314 315 316 316 316 317 310 305 314 320 324 323 303 299 299 301 294 296 298 296 293 297 305 307 305 307 306 307 308 307 308 311 315 317 333
314 314 314 314 313 313 313 313 313 314 314 314 315 315 316 316 304 305 325 325 328 323 306 303 302 299 291 294 295 294 294 301 303 304 306 305 305 307 304 303 307 307 310 312 319
313 313 314 313 313 312 312 313 313 314 313 314 314 315 317 311 292 306 327 330 327 316 308 304 298 290 288 289 295 291 297 298 300 303 303 301 305 303 305 305 309 311 312 312 312
312 311 311 312 312 312 312 313 313 313 313 313 314 316 309 300 304 315 331 328 322 314 306 302 295 290 287 289 292 291 294 297 298 297 298 302 302 303 304 308 310 311 312 312 312
313 312 312 312 312 312 311 311 312 312 313 313 315 317 304 290 309 313 318 317 317 309 301 301 295 295 291 290 289 292 293 294 295 296 296 297 299 300 303 306 306 307 308 311 312
312 313 312 312 311 312 312 311 311 312 313 314 315 314 303 294 307 307 314 307 307 308 302 301 300 296 294 291 293 294 289 291 293 295 296 299 295 296 303 305 304 305 306 309 312
312 312 312 312 311 311 311 311 311 312 313 314 317 308 294 307 308 307 305 304 301 306 302 301 300 295 292 294 293 288 287 282 289 293 296 295 290 298 301 301 302 304 305 307 310
312 311 311 311 311 311 311 311 312 313 314 315 305 301 297 314 304 304 302 301 301 301 301 305 299 293 292 287 285 285 280 282 287 291 291 292 288 295 298 298 298 299 300 303 305
311 311 311 310 311 310 310 310 310 311 313 314 310 298 301 302 303 304 303 303 300 299 297 296 291 288 286 285 279 282 282 284 285 290 290 289 290 294 296 296 296 297 298 300 301
311 310 310 310 310 311 306 300 296 295 303 297 301 301 304 307 306 301 304 301 299 295 287 290 285 283 286 288 289 288 286 284 287 291 289 288 290 292 294 294 294 295 297 298 300
309 309 309 310 310 310 303 300 300 298 292 300 301 303 307 305 298 300 304 295 293 287 290 286 282 289 292 290 288 287 284 284 288 293 291 290 289 293 292 293 294 295 296 297 298
309 309 309 310 310 302 298 301 307 300 290 295 300 300 300 301 297 296 300 295 291 287 287 284 288 292 291 288 288 286 285 286 287 291 291 289 287 289 292 293 295 295 296 296 297
308 308 309 309 301 298 300 306 304 300 287 294 295 299 299 297 294 301 302 297 291 287 288 286 291 290 288 287 289 283 291 291 289 286 279 289 278 287 290 291 292 293 293 294 295
308 308 308 308 298 299 304 303 302 300 277 297 296 303 299 294 295 297 301 295 290 289 288 287 288 287 286 288 292 286 293 289 288 285 282 283 279 285 288 288 291 293 295 297 298
308 308 308 303 299 303 304 301 301 287 280 291 296 295 294 293 294 297 296 298 296 290 289 288 292 291 290 293 292 293 288 286 285 282 275 282 281 282 283 286 289 295 297 299 299
308 308 305 305 298 301 302 298 286 280 293 289 290 293 292 292 293 295 292 289 286 282 281 286 286 292 294 287 289 287 281 274 274 274 275 284 281 283 289 293 295 295 296 297 298
307 306 305 305 301 302 298 291 282 288 287 293 292 292 290 292 292 293 291 286 292 288 282 279 279 287 294 288 284 283 282 273 269 273 276 283 278 283 294 296 297 298 297 298 297
305 300 302 305 306 299 293 283 284 288 292 290 291 287 289 291 291 290 288 288 291 290 282 280 282 292 293 292 289 284 281 285 275 279 275 279 284 288 293 294 295 295 296 295 296
296 299 301 307 302 297 289 288 290 295 294 292 284 288 284 287 287 286 287 293 291 293 290 286 280 289 291 292 291 287 288 278 278 273 273 278 280 281 286 289 293 293 293 294 296
297 296 303 302 301 294 285 288 292 296 296 291 288 286 287 286 287 285 287 291 294 292 291 287 283 284 288 286 283 283 282 283 282 281 274 274 278 287 289 291 292 293 294 293 296
293 290 303 300 290 286 285 290 296 294 297 294 291 291 288 289 286 286 286 290 294 294 288 289 284 280 284 291 292 288 285 286 279 277 280 279 279 292 292 291 292 293 295 295 298
290 292 302 297 280 282 288 292 293 293 293 292 290 291 290 286 282 288 289 294 294 291 288 289 281 279 280 283 287 286 289 289 287 285 280 275 279 291 291 292 294 294 296 297 297
292 286 290 291 288 285 285 288 289 296 294 293 291 291 288 286 287 285 287 292 293 292 298 293 284 281 279 281 285 284 286 289 286 281 280 281 282 288 290 291 293 295 296 296 297
289 285 287 281 284 285 285 288 287 288 292 291 288 289 286 282 284 284 287 288 291 294 292 289 284 285 286 288 288 287 287 287 285 285 282 284 284 287 290 290 293 296 298 298 302
287 286 287 285 287 286 286 284 287 288 288 287 285 288 287 283 284 283 285 284 285 288 288 291 284 285 284 287 287 285 288 288 288 288 287 287 286 292 292 294 294 294 295 296 303
291 290 290 285 285 282 282 285 286 288 290 291 288 286 286 288 290 291 290 289 289 286 285 283 285 285 280 287 286 281 286 288 289 291 289 284 289 292 291 292 292 293 294 297 299

GFSSW_sfc_thetae_057.txt.gz
Theta_e
313 312 312 313 313 313 313 313 312 313 314 314 315 315 316 316 316 311 306 310 315 317 319 307 305 305 305 304 308 311 304 300 302 301 303 311 308 313 315 311 313 314 314 316 328
314 314 314 313 313 312 312 312 313 313 313 314 314 315 315 316 311 308 316 317 322 321 305 301 302 303 301 302 305 305 300 301 307 308 307 309 307 309 308 308 309 311 315 316 317
314 315 314 314 314 313 312 312 312 312 313 313 314 314 315 315 306 306 323 322 322 321 307 306 305 303 298 301 301 301 298 304 306 305 306 305 307 307 306 304 308 307 310 313 316
314 314 314 314 313 313 312 312 313 312 312 312 313 313 315 312 295 311 328 326 326 314 310 307 303 298 297 296 299 297 300 301 305 303 301 301 304 302 304 305 309 309 311 312 313
313 314 313 313 312 312 312 312 312 312 311 311 312 313 311 300 303 316 330 325 318 312 307 305 301 299 295 297 298 297 297 299 300 300 300 300 301 303 302 305 307 310 310 310 312
313 313 312 312 311 311 312 311 311 310 310 310 312 313 307 292 307 313 321 318 315 311 306 307 301 301 298 297 297 298 298 298 299 300 300 298 299 301 303 306 305 307 309 310 312
313 312 311 310 310 311 311 312 310 310 311 312 312 312 303 296 309 312 316 312 314 311 305 307 305 301 300 296 299 297 294 296 297 298 297 299 294 296 302 303 303 305 307 308 309
311 309 310 310 310 311 311 311 311 310 311 313 314 311 297 305 310 311 312 310 311 312 309 307 305 302 300 300 297 294 293 290 295 296 297 297 291 297 301 301 301 303 305 306 308
311 310 310 310 310 311 311 311 312 313 313 314 311 305 300 315 308 308 310 304 303 304 305 305 303 298 298 295 292 292 289 289 291 297 297 296 292 298 301 300 300 302 303 305 307
311 310 309 309 310 310 311 311 315 315 314 314 311 302 306 303 309 309 306 304 302 301 300 299 299 296 295 294 286 287 288 289 289 294 296 294 294 297 299 299 299 300 301 304 305
309 309 308 309 309 310 309 307 303 301 308 300 300 300 302 308 308 303 305 303 302 299 294 295 293 290 292 293 292 291 290 288 292 295 294 293 293 296 298 299 299 300 300 302 305
308 308 309 309 310 310 306 304 303 304 297 301 302 303 305 306 300 303 306 299 297 293 293 292 289 294 294 293 291 291 289 289 292 295 293 293 292 295 297 298 300 301 301 302 303
308 308 309 309 309 306 304 305 308 305 297 298 300 300 301 304 299 301 303 299 295 292 291 289 291 294 293 292 291 291 289 289 288 292 294 292 289 292 296 298 300 301 302 303 303
308 308 309 308 305 305 305 307 307 305 294 294 297 301 302 302 297 304 304 300 295 292 291 291 294 292 291 290 292 287 294 291 290 288 284 291 282 290 293 295 297 299 301 302 304
308 309 309 307 305 305 307 307 307 306 282 296 296 305 301 297 298 298 303 299 294 293 293 290 291 291 290 290 294 289 294 292 291 289 287 287 285 289 293 292 294 298 301 303 306
308 309 308 307 306 308 306 306 307 293 282 291 296 295 295 296 297 299 299 300 298 293 293 292 295 294 293 295 294 294 292 290 289 288 282 286 285 286 290 292 295 298 301 304 305
307 308 307 306 303 306 306 305 292 286 293 289 291 294 293 293 295 296 294 293 290 287 287 290 290 295 296 292 293 292 289 282 280 281 280 288 285 287 293 295 296 297 300 304 306
306 306 307 307 309 308 306 298 286 289 289 294 293 293 290 293 293 293 292 291 294 291 287 285 283 291 295 292 290 290 289 283 275 278 281 287 282 289 295 297 299 301 303 305 305
305 308 308 309 309 305 301 291 289 290 293 292 292 289 289 292 292 292 290 291 293 294 288 286 285 293 294 295 294 289 287 290 284 285 281 284 288 293 296 296 298 299 301 302 303
304 305 307 307 307 305 298 291 293 295 295 293 287 290 286 288 289 290 290 294 293 295 296 291 284 291 293 295 294 292 294 285 287 277 276 282 284 285 291 293 296 297 299 301 303
304 302 307 305 307 301 293 291 294 297 296 293 290 289 289 288 290 289 289 292 295 294 296 293 289 288 291 290 289 289 288 288 288 286 279 278 284 293 293 295 295 298 299 300 302
301 297 306 304 296 291 292 292 295 295 297 295 294 291 290 290 289 288 288 291 296 297 291 293 290 284 286 293 294 292 290 290 284 282 285 284 283 296 297 296 298 298 300 301 303
297 297 305 302 292 289 291 292 294 293 294 294 292 293 293 290 287 290 290 294 295 294 292 294 288 282 283 288 291 289 290 291 291 288 284 280 284 296 297 297 299 298 300 301 303
296 291 294 295 292 290 288 289 290 295 293 293 292 293 291 289 291 289 289 293 294 294 296 296 290 286 281 284 289 286 289 291 289 283 285 285 287 292 295 296 298 299 301 301 302
293 289 290 286 288 289 289 289 288 289 292 293 291 290 288 286 287 287 290 290 293 295 295 294 286 288 288 289 289 289 288 289 288 288 283 287 288 292 295 297 299 300 300 300 300
292 290 292 289 288 288 288 287 286 288 289 288 288 289 290 287 288 286 288 288 288 292 293 294 286 287 284 289 289 287 289 290 290 290 289 290 290 297 299 299 298 299 298 298 299
294 294 293 287 287 287 287 287 287 289 290 292 290 289 288 290 292 294 294 293 292 290 290 290 288 284 280 287 287 284 289 290 291 293 292 288 293 298 296 297 297 297 298 297 299

GFSSW_sfc_thetae_060.txt.gz
Theta_e
316 316 316 315 315 314 313 313 313 314 314 315 315 315 315 316 316 316 311 314 315 318 318 311 310 310 309 309 313 316 308 304 305 306 308 313 310 315 318 315 316 318 318 321 322
315 315 316 315 315 315 314 313 313 313 314 314 314 315 315 315 314 312 320 319 321 321 312 307 305 307 306 306 309 308 305 306 311 311 310 313 313 312 312 313 314 316 320 320 321
315 315 315 315 315 314 314 314 313 313 313 313 313 314 314 316 312 308 324 321 324 323 308 307 308 306 303 306 306 307 303 308 310 312 314 312 312 313 311 309 314 314 314 317 318
314 314 314 314 314 313 314 313 313 313 313 312 312 314 314 315 299 314 327 324 326 317 314 308 306 303 301 301 306 301 306 307 308 311 309 308 311 310 311 312 314 314 315 315 316
313 313 313 312 312 312 312 313 313 312 311 311 311 313 314 305 306 319 329 326 319 314 309 307 304 303 300 301 302 301 303 304 307 308 308 309 306 307 306 311 310 311 313 313 315
311 310 310 311 311 311 312 312 312 311 311 311 311 313 311 297 313 318 322 318 314 312 309 308 305 305 302 301 300 302 303 303 305 305 306 303 304 305 306 309 309 310 310 312 313
312 311 311 311 311 311 312 312 312 311 311 312 312 314 307 301 313 316 320 315 314 311 306 308 308 304 304 300 303 302 298 301 302 303 303 304 300 302 306 306 306 308 310 311 312
311 311 310 310 311 311 312 312 312 311 311 312 313 314 302 309 314 314 316 314 314 313 310 310 309 305 303 304 301 298 299 295 300 300 302 300 296 301 305 304 304 305 307 309 311
310 311 310 310 311 311 311 312 313 312 313 314 315 311 302 316 310 312 314 307 307 308 309 308 307 303 302 298 297 298 293 294 296 301 300 300 297 302 304 303 302 303 306 307 309
309 310 310 310 310 310 310 312 314 315 315 317 314 306 308 304 310 311 311 309 305 305 303 304 303 300 299 297 291 293 293 294 294 299 299 298 298 302 304 304 303 303 304 306 307
309 309 310 310 310 311 313 314 310 308 311 305 303 304 305 310 312 308 309 306 305 303 298 301 296 294 297 298 297 295 294 293 296 299 297 298 298 300 303 303 303 304 304 305 307
309 309 310 310 310 311 313 309 307 308 302 307 306 306 308 309 303 306 309 302 301 297 298 297 293 298 298 297 295 295 293 294 296 298 297 297 296 299 301 302 303 304 305 306 307
309 309 310 310 310 311 312 309 314 311 303 302 304 303 305 307 302 303 306 303 299 296 296 294 296 298 296 295 293 295 293 293 292 295 297 296 295 297 299 301 302 304 305 306 305
308 309 310 309 308 315 311 313 314 312 299 297 300 303 306 306 300 306 307 303 299 296 296 296 298 295 295 294 295 292 296 293 292 292 289 295 288 295 298 298 300 301 302 304 306
309 310 310 307 315 312 312 315 315 310 288 298 299 308 305 301 301 302 307 303 297 297 296 293 295 295 293 294 295 293 295 294 294 292 292 292 289 294 297 295 299 300 303 306 309
308 309 309 313 317 313 316 315 313 298 286 294 299 298 299 300 300 302 302 304 303 298 298 296 300 297 297 297 297 297 295 295 295 293 286 291 290 292 294 296 298 301 302 305 308
308 308 310 313 311 317 316 311 298 290 297 293 294 297 297 297 298 299 298 298 295 291 292 296 294 298 298 295 298 296 293 287 285 286 286 292 289 294 297 298 299 300 302 305 308
307 306 311 316 318 316 313 303 290 293 293 297 296 297 295 297 298 297 297 295 299 297 293 289 287 294 298 295 293 294 293 287 279 282 287 292 286 293 299 300 302 303 304 306 308
305 317 317 317 316 315 306 294 294 295 296 295 296 293 294 295 295 295 295 294 297 298 292 289 289 296 297 297 296 292 290 295 288 289 286 289 292 297 300 299 300 301 302 304 306
312 313 314 314 316 312 302 294 296 298 297 297 291 293 291 292 292 292 293 296 295 298 300 294 288 295 296 297 297 295 297 289 290 280 280 287 289 291 295 297 299 300 301 304 307
313 307 312 313 314 306 297 296 297 300 299 295 293 293 293 292 293 292 292 295 297 297 299 297 293 291 295 293 291 292 291 292 292 290 284 283 288 298 297 298 299 300 302 304 305
309 301 312 312 301 303 297 296 295 296 299 298 297 296 294 294 293 293 291 294 298 298 293 296 293 288 290 296 297 296 293 293 287 286 289 288 287 300 300 301 301 302 304 305 307
300 304 311 309 296 295 297 295 296 295 296 296 295 296 297 294 290 292 293 297 298 297 294 297 291 285 286 292 295 292 293 294 293 292 288 285 289 301 301 301 303 303 304 305 306
300 296 300 303 300 294 292 292 292 298 296 297 296 297 295 293 296 291 292 295 297 297 297 297 293 289 284 287 292 289 291 293 291 287 289 289 292 296 299 300 302 303 305 305 305
299 296 296 292 295 294 294 293 291 290 295 297 294 293 292 289 291 291 293 294 295 297 297 296 289 291 292 292 292 291 290 291 289 290 287 291 292 296 299 301 302 304 305 304 304
297 294 298 294 294 293 291 292 290 291 291 290 291 293 294 291 291 289 292 292 291 295 295 298 289 291 288 291 291 290 292 293 293 294 293 294 293 300 302 303 301 300 302 303 303
302 302 298 293 291 291 292 290 290 291 292 294 294 292 291 292 295 296 297 297 296 292 291 292 291 287 284 289 290 287 292 293 295 296 295 291 296 301 300 300 299 301 302 302 302

GFSSW_sfc_thetae_063.txt.gz
Theta_e
316 316 316 316 316 316 316 315 315 315 315 315 315 316 316 316 316 315 313 315 316 318 318 312 313 312 313 312 315 317 307 305 307 308 310 316 313 316 318 317 319 320 320 322 324
315 315 315 316 316 315 315 315 315 315 315 315 314 315 315 316 314 313 321 323 318 321 315 310 307 309 308 309 312 309 306 306 312 313 312 314 314 315 313 315 317 318 322 324 323
314 314 315 314 314 314 314 314 315 315 314 314 314 314 315 316 313 313 324 324 325 321 314 310 310 309 306 309 309 309 304 309 312 314 315 314 314 317 314 311 314 316 320 320 320
314 312 312 312 312 313 313 313 314 314 314 313 313 313 315 315 303 317 325 323 325 324 315 310 307 305 303 303 309 305 308 309 310 313 312 311 315 314 315 315 316 318 321 319 317
312 312 312 312 312 312 312 313 313 313 313 312 312 313 315 309 308 323 327 325 321 317 313 310 307 306 302 304 306 305 307 309 310 310 311 313 311 311 312 316 318 317 320 319 318
313 312 312 311 311 311 312 313 313 312 312 312 313 313 314 303 316 322 320 318 317 313 312 311 308 308 305 305 303 306 305 306 308 307 309 308 308 309 311 314 313 314 316 318 318
311 310 311 311 311 312 312 313 313 312 312 312 314 315 311 306 314 319 320 316 315 312 309 310 311 306 307 303 307 305 301 304 305 306 305 308 303 304 310 312 311 311 313 316 318
312 311 311 311 311 312 312 312 313 313 312 313 314 316 307 312 315 315 318 314 314 313 311 312 311 308 306 308 304 301 301 297 303 304 305 304 298 306 310 310 308 309 310 312 316
311 311 311 311 311 312 312 312 315 314 313 314 316 315 308 313 308 314 315 310 311 311 312 311 308 305 305 300 299 300 295 297 300 304 302 302 299 305 308 307 307 309 309 310 313
311 311 311 311 311 311 311 313 314 314 316 318 318 309 311 306 310 312 314 312 307 307 306 305 304 301 301 299 292 296 297 298 298 302 302 300 300 305 307 307 306 308 309 309 311
310 311 311 311 311 311 312 317 314 314 314 310 307 308 308 311 314 311 312 309 308 305 300 304 299 296 299 302 301 299 298 297 300 303 299 300 301 303 306 307 306 307 308 309 310
310 310 311 311 312 311 314 311 309 311 305 310 308 308 309 311 304 308 312 304 303 299 303 300 296 300 302 300 299 298 296 296 299 301 300 299 299 303 305 305 307 307 308 308 309
309 310 311 312 312 312 315 311 316 315 306 305 306 306 307 310 304 306 308 305 301 299 299 296 299 301 298 297 296 296 295 296 296 299 300 298 296 299 303 305 306 307 309 309 310
309 310 311 311 306 318 314 316 316 316 300 301 302 306 307 308 303 309 310 306 302 298 299 299 301 297 297 296 298 294 300 298 296 294 290 298 289 298 301 301 303 305 307 308 309
309 309 311 309 318 314 315 318 317 315 291 301 302 311 308 304 304 305 310 306 299 300 299 297 298 296 295 297 299 295 298 297 296 294 294 294 292 296 301 299 301 304 306 308 310
308 309 310 316 319 316 317 317 316 300 290 298 302 300 301 303 303 305 304 307 306 301 301 300 303 300 298 299 300 300 297 297 297 295 288 293 293 294 297 299 301 303 305 306 309
308 308 310 317 313 319 317 313 300 293 301 296 298 300 300 299 301 302 301 300 297 293 294 298 298 301 301 296 298 298 295 288 287 288 287 295 293 295 300 301 302 302 304 306 310
306 306 313 317 319 319 315 305 293 297 297 301 299 300 297 300 300 300 299 297 301 299 295 292 290 298 302 298 295 295 294 288 282 284 286 295 289 295 302 304 303 304 305 307 309
304 317 319 321 319 318 308 297 297 299 299 297 298 296 297 299 297 298 297 297 299 299 293 292 292 299 301 301 299 294 291 297 290 292 288 292 295 300 302 301 303 303 304 305 308
311 315 316 319 320 314 305 297 300 301 300 299 293 297 294 296 296 296 295 298 297 300 302 296 290 298 299 300 300 297 299 290 291 282 281 288 290 290 298 300 302 302 303 305 308
314 308 316 320 318 308 299 300 301 303 301 297 296 295 296 295 296 295 294 297 300 298 300 298 294 294 297 295 294 294 293 293 294 291 284 283 288 299 299 301 301 302 304 306 307
311 301 317 316 302 305 299 299 296 298 301 299 300 298 297 297 295 294 294 296 301 300 294 298 295 289 291 298 301 298 295 295 288 287 290 288 288 301 302 303 303 303 306 307 308
304 305 314 309 299 298 300 298 298 297 298 298 297 299 300 296 292 295 295 300 300 298 296 298 292 286 289 294 297 293 294 295 294 294 289 286 289 302 302 303 304 304 306 307 308
304 300 306 308 304 298 296 296 295 299 297 298 297 299 297 295 297 293 295 297 299 298 298 299 293 289 285 287 291 290 292 295 294 289 289 290 292 297 300 301 303 305 307 307 308
307 301 301 296 298 298 298 296 294 293 298 298 296 296 294 291 293 292 294 296 298 301 298 297 290 292 293 294 293 292 292 293 292 293 288 292 293 296 299 301 303 306 307 306 306
300 299 301 299 299 297 294 296 293 294 294 293 293 295 296 293 293 291 294 295 294 297 296 298 291 292 290 293 292 290 292 293 293 294 294 295 294 301 303 304 304 303 306 305 305
304 306 301 299 298 295 295 294 293 294 295 295 295 295 294 295 298 299 300 299 298 295 294 294 293 289 286 291 291 287 292 294 295 295 294 292 298 301 300 302 303 304 304 304 305

GFSSW_sfc_thetae_066.txt.gz
Theta_e
316 316 316 316 316 316 316 315 314 315 315 315 316 316 316 316 316 312 309 318 319 324 318 309 312 313 313 310 313 313 303 301 303 304 308 314 313 316 317 315 317 319 319 321 324
315 315 314 315 315 315 315 314 314 315 315 315 316 315 315 315 312 308 324 328 325 323 308 308 306 309 306 307 309 307 303 302 307 309 309 313 313 315 313 313 314 317 322 323 323
314 313 313 313 312 312 313 313 314 314 315 315 315 315 315 314 310 313 329 329 326 320 314 312 310 308 304 307 307 306 303 307 308 310 312 311 312 316 313 310 314 314 319 322 322
314 314 314 313 312 312 312 313 314 314 314 314 314 314 314 312 303 314 329 328 326 319 319 311 306 303 303 302 307 302 306 307 308 310 309 309 313 312 314 315 318 319 319 320 320
312 313 312 312 312 312 312 312 313 313 313 313 313 313 313 310 308 317 330 324 318 317 313 311 307 305 301 304 305 304 305 308 309 309 309 310 309 310 311 318 320 320 318 318 321
311 311 311 312 312 312 312 312 313 313 313 313 313 313 311 303 320 318 316 316 316 314 311 311 308 309 304 304 303 305 305 306 307 307 309 306 307 309 311 316 315 315 316 317 318
312 311 312 312 312 312 312 312 312 313 313 313 314 314 310 308 312 320 317 316 316 313 309 311 311 307 306 303 306 305 301 303 304 305 305 307 302 303 310 313 312 312 314 314 316
311 311 312 312 312 312 312 313 313 313 314 314 314 314 306 316 317 314 318 315 316 314 312 312 311 307 305 307 304 301 301 295 302 304 305 304 297 305 309 309 308 309 311 312 313
311 312 312 312 312 312 313 313 314 317 316 314 313 312 308 314 308 312 315 312 313 313 312 312 309 303 304 299 297 299 293 296 298 304 303 302 298 304 308 308 307 309 310 310 312
311 311 311 312 312 312 313 312 315 313 313 315 316 310 312 308 309 310 315 313 309 307 306 305 304 299 300 297 290 294 295 297 297 302 302 300 299 303 306 307 306 308 308 310 311
311 311 310 312 312 313 312 316 312 312 316 311 310 309 310 313 314 310 312 310 308 305 298 303 298 295 298 300 300 298 297 296 300 304 301 300 300 302 305 306 306 307 308 310 311
310 310 311 312 313 313 312 312 310 311 304 311 312 309 311 312 305 308 312 304 303 298 302 299 296 301 302 301 299 298 296 296 299 302 301 300 298 302 304 306 307 308 308 309 311
310 310 311 312 312 311 315 312 317 316 304 308 310 307 307 309 305 306 309 305 301 298 299 296 299 303 300 298 296 296 295 295 295 299 301 299 296 299 303 305 307 308 310 310 311
309 310 311 311 309 317 314 318 317 318 299 304 303 306 307 308 303 310 311 306 302 298 299 298 302 300 298 296 297 292 299 298 297 294 290 299 288 297 301 302 304 306 308 308 310
309 309 310 310 313 314 315 317 316 315 290 303 304 312 308 304 306 305 311 306 299 299 300 297 298 298 296 296 299 294 300 297 296 294 293 293 290 294 300 299 301 304 305 307 309
309 309 309 315 316 319 318 317 315 300 291 300 303 301 301 303 303 306 305 307 305 300 301 299 303 301 299 300 300 300 296 296 296 293 286 291 291 292 296 299 301 304 305 307 308
308 308 307 315 311 319 318 311 299 293 304 298 298 301 300 299 301 302 301 299 296 293 293 298 298 302 302 297 300 297 293 285 283 285 285 294 292 295 300 303 303 303 304 306 308
306 306 311 316 318 319 314 304 292 299 300 304 300 300 297 300 300 300 299 296 300 298 293 290 289 298 302 299 295 295 294 287 280 282 286 293 289 294 302 304 305 305 306 306 308
305 316 316 320 320 317 307 296 296 300 302 299 298 295 296 299 299 299 298 297 299 300 292 292 292 298 300 302 299 295 291 297 290 290 286 289 294 300 302 302 303 303 304 305 307
305 313 314 322 320 313 303 297 301 305 303 300 293 296 293 296 296 296 296 300 298 301 301 296 289 296 299 301 300 297 299 290 291 282 280 286 288 290 297 299 301 302 303 305 307
309 309 317 320 316 306 297 300 302 304 301 296 295 294 295 294 296 295 295 298 300 299 301 296 294 293 297 294 291 294 292 293 293 291 283 282 287 298 298 301 301 302 304 305 307
308 303 317 314 299 303 301 300 299 300 302 299 299 297 296 297 294 294 293 296 301 300 293 297 295 288 291 298 300 297 295 294 287 286 290 289 288 301 302 301 303 303 305 306 308
303 305 316 312 298 298 300 299 300 299 299 298 297 298 299 295 291 294 296 300 300 298 296 298 292 286 286 293 297 293 294 296 295 295 288 283 288 302 302 302 304 303 304 307 308
305 299 306 307 305 300 297 295 296 301 298 299 298 298 297 295 296 293 294 298 300 299 300 298 293 289 283 287 291 287 290 293 293 289 288 289 291 297 298 298 302 302 304 306 308
306 302 304 296 299 300 299 297 295 295 299 299 295 296 294 291 293 292 295 296 299 301 299 297 289 291 291 293 293 291 292 293 291 292 288 291 291 295 299 300 302 301 303 306 307
300 299 301 299 302 299 298 296 295 295 295 293 292 294 295 293 293 291 294 294 294 298 296 298 290 292 290 293 293 291 293 294 293 293 292 292 292 299 302 303 303 303 303 304 305
305 304 300 297 298 298 297 295 294 295 295 297 295 294 294 296 298 299 299 299 298 296 294 294 292 289 285 291 291 287 292 294 295 295 294 290 295 300 299 300 302 303 304 303 304